GEFSMA_500_meanwind_120.txt.gz
Wind_Speed
22 23 23 23 22 22 22 22 22 22 21 21 21 21 21 21 21 20 20 20 19 19 19 18 17 17 16 16 16 15 14 14 14 14 14 14 14 14 14 15 15 16 16
24 25 25 25 24 24 24 24 24 23 23 22 22 22 22 22 22 22 22 21 21 21 21 20 20 19 19 18 18 17 17 16 17 17 17 17 17 17 17 17 17 18 19
27 26 26 26 26 26 26 26 26 25 24 24 24 24 23 23 23 24 24 23 23 22 22 22 22 21 20 20 20 20 20 20 20 20 20 20 20 19 19 20 20 21 22
26 27 27 27 28 27 28 28 28 27 26 25 25 25 24 25 25 25 25 25 25 24 25 24 24 23 23 23 22 22 22 23 23 23 23 22 23 23 23 23 24 25 25
26 27 28 28 29 29 29 30 29 29 28 28 27 26 26 26 26 26 26 26 26 26 27 27 25 25 25 25 24 24 24 24 25 25 25 25 25 26 26 26 27 28 29
27 28 29 30 30 29 30 30 30 30 30 29 28 27 27 28 27 27 27 27 27 27 28 27 26 26 26 26 26 26 26 26 26 26 27 27 27 28 29 29 30 31 32
28 28 28 29 31 31 31 32 31 31 30 30 30 29 28 28 28 28 28 28 29 28 29 29 29 28 28 27 28 28 28 29 29 29 29 30 31 31 31 32 33 34 34
29 29 29 29 30 31 32 33 33 32 31 31 31 31 30 30 29 29 30 30 31 31 32 32 31 30 30 30 30 31 31 32 32 33 33 34 34 34 34 35 35 36 37
29 29 30 31 31 31 31 32 32 32 32 31 32 31 31 30 31 31 31 31 32 32 32 34 34 33 33 32 32 33 34 35 35 35 36 36 37 37 37 37 38 38 39
30 31 31 31 32 32 32 32 32 32 32 32 32 33 32 31 31 31 32 33 32 33 33 34 35 35 35 35 35 36 36 36 36 36 37 38 38 39 39 39 39 39 39
30 31 31 32 32 32 33 33 33 32 31 32 32 32 32 32 31 31 31 32 33 33 34 34 35 36 37 37 37 38 37 38 38 38 39 39 40 40 40 40 40 40 41
30 30 31 32 32 32 32 32 31 31 31 31 32 32 31 31 32 31 31 33 33 34 35 36 36 37 38 38 39 38 38 38 39 39 40 40 40 40 39 39 40 40 41
29 30 30 31 32 32 31 31 31 31 31 32 32 32 31 30 32 32 32 33 34 34 34 34 35 36 36 37 38 39 39 39 39 39 39 39 39 39 39 39 40 41 41
29 29 30 30 30 31 31 31 32 31 32 32 32 32 32 32 33 33 33 33 35 35 34 35 35 36 37 38 38 38 38 37 37 38 37 37 38 39 39 39 40 40 41
31 30 29 28 29 29 31 31 32 32 33 33 33 33 33 33 33 34 34 34 34 35 35 35 36 37 37 38 38 37 36 37 37 36 36 36 37 38 38 39 40 41 41
30 30 29 29 29 29 31 32 31 31 32 33 34 34 34 34 35 35 35 35 34 35 35 36 37 38 37 37 37 37 37 37 37 37 38 38 38 38 39 40 41 41 42
29 29 28 29 29 29 30 30 31 31 31 33 34 34 35 35 35 34 35 35 35 35 35 36 37 37 37 36 37 37 37 37 37 37 38 38 39 39 39 40 41 41 40
28 27 27 27 28 28 28 29 29 31 31 31 32 32 32 33 33 32 34 34 34 35 36 37 37 36 36 36 36 36 36 37 37 37 38 38 38 39 39 39 39 39 39
26 26 26 26 26 26 27 28 29 29 30 30 30 30 31 31 31 32 32 33 33 34 35 35 35 35 35 34 35 36 37 36 37 37 38 38 38 38 39 39 38 37 37
25 25 26 26 25 26 27 27 27 28 29 29 29 29 29 30 30 31 30 31 32 34 35 35 35 35 35 35 35 36 36 36 36 36 36 36 37 37 37 36 36 34 33
23 23 23 23 24 24 25 25 26 26 26 27 28 28 28 29 29 29 29 30 31 31 32 32 33 34 34 34 34 34 34 34 34 34 34 34 35 35 34 33 32 31 29
19 20 20 21 20 21 22 22 23 24 24 25 26 27 28 28 28 28 29 29 28 29 30 30 31 31 32 32 32 32 32 32 32 32 32 32 32 32 31 29 28 27 26
17 17 17 18 18 19 19 20 21 21 21 23 24 24 25 25 25 25 26 27 28 29 29 29 29 29 29 30 30 30 30 30 30 30 30 30 29 28 27 26 25 24 23
13 14 14 15 16 16 16 17 17 18 18 19 20 20 21 21 22 23 24 25 25 26 26 26 27 27 27 27 27 27 27 27 27 27 26 26 25 24 23 23 22 21 20
10 11 11 12 13 13 12 13 14 15 15 16 16 17 18 19 20 20 20 21 22 22 23 23 24 24 24 24 24 24 23 23 23 22 22 22 21 20 20 19 18 18 17
7 7 7 8 9 9 10 10 11 12 13 13 14 14 14 15 15 16 17 18 18 19 19 20 20 20 21 21 21 20 20 19 19 19 19 18 18 18 17 17 16 16 15

GEFSMA_500_meanwind_126.txt.gz
Wind_Speed
23 24 24 23 23 23 23 24 24 23 22 21 21 21 22 21 21 20 19 20 20 20 20 19 19 18 18 18 17 16 15 15 15 15 14 14 14 14 14 15 15 16 16
25 26 26 25 24 24 24 25 24 24 23 23 22 22 23 23 23 22 22 21 21 22 22 22 20 20 20 19 19 18 18 18 18 17 17 17 17 16 17 17 18 18 19
25 25 25 26 27 26 26 26 25 25 25 25 25 24 24 24 24 23 24 23 24 24 23 22 22 22 21 21 21 20 20 20 20 20 20 20 20 20 20 20 20 21 21
26 26 27 27 28 27 27 27 26 26 27 27 26 25 25 25 25 25 25 25 25 24 23 23 23 23 23 23 23 22 22 22 22 22 23 23 23 23 22 23 23 24 24
27 28 29 29 29 30 29 29 28 28 27 28 28 28 27 26 26 26 26 26 25 24 24 24 24 25 24 24 24 24 24 24 24 24 25 24 24 24 25 25 25 26 27
29 29 30 30 31 30 30 30 31 30 29 29 29 28 28 28 27 28 28 27 26 25 25 25 26 26 25 25 25 25 26 26 25 26 27 27 27 27 27 28 28 29 30
30 30 31 31 32 32 32 32 31 30 30 31 31 30 29 29 28 29 29 28 27 27 27 27 27 27 26 27 27 27 28 28 28 29 29 30 30 30 30 31 31 32 33
31 31 32 33 33 33 33 33 33 32 32 32 32 32 32 31 30 30 30 29 28 29 29 28 28 28 28 29 29 30 30 30 31 31 31 31 32 32 32 32 33 34 35
32 32 33 34 34 33 33 33 33 32 32 33 33 32 31 31 31 31 31 31 30 30 31 30 30 30 29 30 31 32 33 33 33 33 33 33 33 34 34 35 36 37 37
31 32 32 33 34 33 32 32 32 32 31 32 32 32 32 32 32 31 31 31 31 31 32 32 32 32 32 32 32 33 33 34 35 35 35 35 36 36 37 37 37 38 38
31 31 31 31 32 31 31 31 32 32 31 31 31 32 32 33 32 31 30 31 31 31 31 32 32 33 32 32 33 33 34 35 35 36 37 37 38 38 39 39 38 38 38
31 31 31 31 31 31 31 31 32 31 31 31 32 32 32 32 31 31 31 30 31 31 31 32 32 32 32 33 33 33 33 34 35 37 38 38 38 39 39 38 38 37 37
30 31 32 31 31 31 31 30 31 31 31 31 32 32 32 32 31 31 31 30 31 32 31 31 31 32 32 33 33 35 34 34 36 38 39 39 39 39 39 38 38 38 37
31 31 32 31 31 31 31 31 31 31 31 30 30 31 31 32 33 32 32 31 32 32 32 31 31 31 33 33 34 35 35 36 36 37 38 37 38 37 37 37 37 37 37
31 31 31 31 31 31 31 31 31 31 31 30 30 30 31 31 31 32 32 32 32 33 32 32 32 32 32 33 35 35 35 35 36 36 36 35 35 35 34 34 34 35 36
31 31 31 31 31 31 31 31 31 31 31 30 31 32 31 31 32 32 32 32 33 33 33 33 33 34 34 34 35 35 35 36 37 36 35 35 34 33 33 33 34 35 36
30 30 30 31 31 30 30 31 30 30 30 30 31 31 31 31 32 32 32 32 33 33 33 33 33 33 33 35 36 36 35 35 34 33 33 33 33 34 34 34 34 35 35
28 29 28 28 29 29 29 30 30 30 30 30 29 29 30 31 32 32 32 32 32 32 32 32 33 33 34 35 35 34 34 34 33 33 33 34 34 34 35 34 35 35 36
26 26 26 25 26 27 27 27 28 28 28 28 28 27 27 28 29 29 30 30 30 31 31 32 32 33 33 33 33 33 33 34 33 34 33 33 33 34 34 35 35 35 35
24 24 24 24 24 24 25 25 25 25 26 26 25 26 26 27 27 28 28 29 30 30 30 30 30 30 31 32 33 33 33 33 33 33 32 32 32 32 33 33 33 32 32
22 22 22 23 23 23 23 23 23 23 23 23 23 23 24 25 26 26 27 28 28 28 28 28 29 30 30 30 30 31 31 31 31 30 31 31 30 31 31 30 30 29 29
21 21 21 21 21 21 21 21 21 20 20 20 20 21 21 22 23 24 25 26 26 26 26 27 27 27 28 29 28 28 28 28 28 29 29 29 28 28 27 27 27 27 26
17 17 17 17 17 18 17 17 17 18 18 17 18 19 20 21 21 22 22 22 22 23 23 24 25 25 26 26 26 26 26 25 26 26 25 25 25 25 25 24 24 23 23
14 14 14 14 14 14 14 15 15 15 16 16 16 16 17 17 18 19 19 20 21 21 21 22 23 24 24 23 23 23 24 24 24 23 23 23 22 21 21 20 20 19 19
11 11 11 11 11 11 12 12 13 13 14 14 14 14 14 15 15 16 16 17 17 18 19 20 20 21 21 21 21 21 21 20 20 20 20 20 19 19 18 18 18 18 18
7 7 7 8 8 8 9 9 10 10 10 10 10 10 11 11 12 13 13 13 13 14 15 16 16 16 16 16 16 16 16 16 16 17 17 17 17 17 16 16 16 16 17

GEFSMA_500_meanwind_132.txt.gz
Wind_Speed
22 23 23 23 21 21 21 21 21 22 22 22 22 22 22 22 21 21 21 20 20 20 19 19 19 19 19 18 18 18 18 18 17 17 16 16 16 15 15 16 16 16 16
22 22 22 23 22 22 22 22 22 22 23 22 23 23 22 22 22 22 22 21 22 21 21 21 20 20 20 20 20 20 20 20 20 19 19 18 18 18 18 18 18 18 18
23 23 22 22 22 22 23 23 23 23 23 23 23 23 23 22 22 23 23 23 23 23 22 22 22 22 21 22 22 22 21 22 22 21 21 20 20 20 20 20 20 20 20
23 23 23 23 24 24 23 24 25 25 25 24 23 24 24 24 25 24 24 23 23 24 24 23 23 23 23 23 24 23 23 23 23 23 23 23 22 22 22 22 22 23 22
24 23 24 24 25 25 25 25 26 26 26 25 25 24 24 25 26 25 24 24 23 24 25 25 24 24 24 24 25 25 25 25 25 25 25 25 24 24 24 24 25 25 25
25 24 25 25 26 26 26 26 26 27 27 27 27 27 27 26 27 27 26 25 24 24 25 25 25 24 24 25 25 25 26 26 26 27 27 27 27 26 26 26 26 26 27
25 25 25 26 27 28 27 28 28 28 27 28 28 28 28 28 27 28 29 28 27 26 26 26 25 26 26 26 26 26 27 26 26 27 28 28 29 28 28 29 28 29 29
26 26 26 26 27 28 28 28 29 29 29 29 29 29 28 28 28 29 29 30 29 28 27 27 27 27 27 28 28 28 28 28 28 29 30 30 30 30 30 30 30 31 32
27 27 27 28 28 28 28 28 28 28 28 29 29 28 28 27 29 29 29 29 30 30 29 28 28 28 28 29 30 29 29 30 31 31 31 32 32 33 32 33 34 33 34
28 28 28 28 28 29 29 29 28 28 28 28 28 27 27 27 28 28 28 29 29 29 28 28 29 30 29 29 30 30 31 31 32 32 32 33 33 34 34 34 35 35 35
28 28 29 29 29 28 29 29 28 28 28 28 28 28 28 27 27 28 28 28 28 28 28 29 29 29 30 30 30 30 31 32 32 32 32 33 33 34 35 35 36 36 35
27 28 29 30 29 29 28 28 28 27 27 27 27 27 27 27 26 27 27 28 28 28 28 28 29 29 29 30 30 31 31 32 32 32 31 32 33 35 35 36 36 36 36
27 28 28 29 29 29 28 28 28 28 28 27 27 28 28 28 27 27 27 27 28 27 28 28 28 28 29 30 30 30 31 31 32 32 32 33 34 34 35 36 37 37 36
28 28 28 28 28 28 28 28 28 28 27 27 27 27 27 28 27 27 27 28 28 28 27 28 28 28 28 29 30 30 30 30 31 33 33 33 34 34 35 35 36 36 37
28 29 29 28 28 28 28 28 28 28 28 27 27 27 27 27 26 26 27 27 28 28 28 28 28 29 29 29 30 29 30 30 31 31 32 33 34 34 34 35 35 35 36
29 29 28 28 27 27 28 28 28 28 28 28 28 27 27 27 26 26 26 26 27 28 29 28 28 28 29 29 28 29 29 30 30 30 31 32 33 33 33 33 34 35 36
28 27 27 26 26 26 26 26 26 27 27 28 28 28 28 27 26 26 26 27 27 28 28 29 29 29 30 29 29 29 29 29 30 30 31 32 32 32 32 32 33 34 35
25 25 25 26 25 25 24 24 24 24 25 26 26 26 27 26 26 26 26 26 26 27 28 28 28 28 28 29 29 29 29 29 30 31 31 32 32 33 33 33 32 33 34
24 24 24 24 24 23 23 23 22 22 23 23 24 24 24 24 25 25 25 26 26 25 26 27 28 27 27 28 29 29 30 29 30 30 31 31 31 32 32 33 33 33 33
23 22 22 22 22 22 22 21 21 21 22 22 23 23 23 23 23 24 24 25 25 25 25 25 25 26 27 27 28 28 28 27 28 28 29 30 31 31 31 32 31 31 31
20 20 19 20 20 20 20 19 19 19 20 20 21 21 22 22 22 23 23 23 24 24 25 25 25 24 24 24 24 25 26 26 26 26 27 28 29 30 30 30 30 29 29
17 17 16 17 17 18 17 17 17 17 17 17 17 17 18 19 20 20 20 20 21 21 22 23 23 24 23 23 23 24 24 24 25 26 26 27 28 28 28 27 27 26 26
14 14 14 14 14 14 14 15 14 14 14 14 13 14 15 16 17 17 17 18 19 19 19 20 21 22 21 21 21 21 22 22 23 23 24 24 24 24 23 24 24 24 23
12 11 11 10 10 10 10 11 11 11 11 11 12 13 13 13 14 15 15 15 15 16 17 17 18 18 18 18 18 18 18 20 20 21 21 21 20 20 20 21 20 20 20
10 9 8 7 6 6 6 6 6 7 7 8 9 10 10 9 10 11 11 12 12 13 13 14 14 14 14 15 16 17 17 18 18 17 18 18 17 17 18 18 18 18 18
7 6 5 5 5 4 4 3 3 3 3 4 5 5 5 5 6 7 7 8 8 9 9 9 9 10 11 12 13 13 14 14 14 15 15 15 15 15 16 16 16 17 18

GEFSMA_500_meanwind_138.txt.gz
Wind_Speed
21 22 23 24 23 23 23 23 23 22 22 21 21 21 22 21 21 22 22 21 22 22 21 21 20 19 19 19 19 19 18 18 18 18 18 17 17 17 16 16 16 16 16
23 23 22 23 24 24 24 24 24 24 24 24 23 22 22 22 22 23 23 23 23 23 22 22 22 21 20 20 20 20 20 20 20 19 19 19 19 19 18 18 18 18 18
22 23 23 24 25 24 25 25 24 24 25 25 25 23 22 22 23 23 24 24 24 23 24 24 23 23 22 22 22 22 22 22 22 21 21 21 21 21 21 21 21 20 20
22 23 23 24 25 25 25 25 25 25 26 25 24 24 23 23 23 23 24 25 25 24 24 24 24 24 24 23 23 23 23 23 23 23 23 23 23 23 23 23 23 23 23
21 22 23 24 25 25 25 25 26 26 27 26 25 25 26 25 24 24 24 25 26 26 26 26 26 25 24 24 24 24 24 25 25 24 24 24 24 25 25 25 26 25 25
22 23 24 24 25 25 26 27 27 27 28 28 28 27 27 27 27 26 26 26 26 27 28 28 27 26 26 26 26 26 26 26 26 26 26 26 26 27 27 27 27 28 28
23 25 25 25 26 26 26 27 27 27 27 28 28 29 29 29 29 28 27 27 27 28 28 28 28 28 28 28 27 28 28 27 27 27 27 27 27 28 29 29 30 30 30
24 26 26 27 27 28 27 27 27 28 29 29 29 29 29 29 29 29 27 27 28 27 28 29 29 30 29 28 29 29 29 29 29 30 29 29 30 30 30 30 31 32 33
26 27 27 28 28 28 28 28 28 29 29 29 30 30 30 29 30 29 28 28 28 28 29 30 30 31 30 30 29 30 30 30 30 31 31 31 32 32 32 32 33 33 33
27 28 29 29 29 29 29 29 29 29 29 29 29 29 29 28 29 28 28 28 28 27 28 29 31 31 31 31 31 30 30 31 31 31 32 33 33 33 34 34 34 35 36
27 27 28 28 28 29 29 29 29 29 29 29 29 29 29 29 28 27 28 28 28 28 28 28 29 30 31 32 32 32 31 32 32 33 34 34 34 33 35 36 37 36 37
27 27 28 28 28 29 29 29 29 30 29 29 29 29 30 30 29 28 28 28 28 29 28 28 28 28 30 32 32 32 33 34 33 35 35 35 35 35 35 36 37 37 37
29 29 29 29 29 28 28 29 29 29 29 29 30 30 30 30 30 30 29 29 29 29 29 29 28 28 30 31 32 32 33 34 33 34 35 35 36 35 35 37 37 37 37
30 30 29 30 29 29 29 29 29 29 29 29 30 30 30 30 30 30 30 30 30 29 29 28 28 28 29 30 30 30 31 33 33 34 35 36 36 36 36 36 37 38 38
29 29 28 28 28 29 29 29 29 29 28 29 29 29 30 30 30 30 30 30 30 29 28 28 28 28 29 29 30 30 31 32 33 34 35 36 36 36 36 36 37 37 38
28 28 27 27 28 28 28 28 28 28 28 29 29 30 30 30 29 29 29 29 29 29 28 28 28 29 29 29 30 31 33 33 33 35 35 35 35 36 36 36 36 36 37
24 24 25 26 27 27 27 27 28 28 28 28 29 29 28 28 29 29 29 29 29 28 28 28 28 29 30 30 30 30 32 32 32 33 34 34 34 35 35 36 36 36 37
22 22 23 24 25 25 26 27 27 27 26 26 26 26 27 27 27 27 28 27 28 28 28 27 28 28 29 29 30 30 30 30 31 32 32 32 32 32 33 34 34 35 35
21 21 22 22 23 23 24 24 25 25 25 25 25 25 25 26 26 26 26 26 26 27 27 27 28 28 28 29 29 28 28 28 28 29 29 30 30 31 32 33 33 32 33
19 19 20 20 21 21 22 22 23 23 23 22 22 23 23 23 23 24 24 24 24 25 26 26 27 27 27 27 28 27 26 26 26 27 28 29 30 31 32 32 32 32 32
17 18 18 18 19 20 20 20 20 21 21 20 20 20 20 20 20 21 21 22 22 23 24 25 25 25 25 25 25 25 26 26 26 27 28 28 29 30 30 30 30 30 30
16 16 15 15 16 16 16 17 17 17 17 17 17 17 17 17 17 17 18 18 19 19 20 21 21 22 23 22 23 23 24 25 25 26 26 26 27 27 26 26 27 27 27
14 13 13 13 14 13 13 12 12 12 13 13 13 13 13 13 14 14 15 15 15 16 17 18 18 18 19 20 20 21 21 21 22 23 23 24 24 23 23 23 23 24 25
12 11 11 11 10 10 9 10 9 9 9 9 9 9 9 10 11 11 11 11 12 12 13 14 14 15 15 16 16 17 17 18 19 19 19 19 19 19 20 21 22 23 23
11 10 9 8 7 7 7 6 5 5 5 6 6 6 6 6 6 7 7 8 9 8 8 10 11 11 12 12 14 14 14 14 15 15 15 16 16 18 18 19 20 20 21
9 8 7 6 5 5 4 4 3 3 3 3 3 3 3 2 2 3 4 4 5 5 6 7 8 9 10 10 11 11 12 12 12 13 14 14 15 16 17 18 18 18 18

GEFSMA_500_meanwind_144.txt.gz
Wind_Speed
22 22 23 23 23 22 22 22 21 20 20 20 20 20 20 20 20 20 20 20 20 20 21 22 21 21 21 21 20 19 19 20 21 20 19 18 18 18 18 19 19 19 18
23 24 24 25 25 24 24 23 22 23 22 22 22 21 21 22 22 22 21 22 22 21 21 22 23 23 23 23 22 22 21 22 23 23 22 21 20 20 20 20 21 21 20
24 24 24 25 26 25 25 24 24 23 23 23 23 23 23 23 23 23 24 24 23 23 23 23 24 25 25 25 24 24 24 24 25 25 24 23 23 22 22 22 22 23 23
24 25 25 25 26 26 26 26 25 24 24 25 25 25 25 25 25 26 25 25 25 25 25 25 25 26 26 26 26 25 25 25 26 26 25 25 24 24 24 24 24 24 25
24 25 25 25 25 26 26 26 26 26 26 26 26 27 27 26 27 27 27 26 27 27 26 26 27 27 28 27 26 26 27 27 28 27 27 26 26 26 25 25 26 26 26
25 26 26 26 26 27 27 27 27 27 27 27 28 28 28 28 28 29 29 29 29 28 28 28 28 28 29 29 28 28 28 28 28 29 29 29 28 28 28 28 28 28 29
26 27 27 27 26 27 27 28 28 28 28 28 29 29 30 30 30 30 30 30 30 30 30 30 30 30 30 31 31 30 30 30 29 30 30 30 30 30 31 31 30 30 30
27 28 28 28 28 28 29 29 29 29 29 29 30 30 30 31 31 30 31 31 31 31 31 31 31 31 31 32 32 32 32 32 31 31 31 31 32 33 33 32 32 32 32
28 29 29 30 30 30 31 31 32 31 31 31 31 31 30 31 31 31 31 32 32 32 32 32 32 32 32 32 33 33 33 33 33 34 33 33 32 34 34 33 33 33 33
29 30 31 31 32 32 32 32 31 31 31 31 32 31 31 31 31 31 31 32 32 32 32 32 32 33 33 32 33 34 34 33 33 33 34 34 34 34 35 35 35 34 35
30 31 32 33 33 33 33 32 31 32 32 31 31 31 32 32 32 31 31 32 32 32 32 32 32 32 32 33 33 33 34 35 35 34 34 34 35 35 36 35 35 35 35
32 32 33 33 33 33 33 33 33 33 32 32 32 32 32 32 32 32 32 32 32 32 31 31 31 31 31 31 32 33 33 34 35 36 35 35 34 35 35 36 36 35 36
32 33 34 34 34 35 34 34 34 34 33 32 32 32 32 32 32 32 32 31 32 32 32 32 31 31 31 31 31 32 32 32 33 35 36 35 35 36 35 36 36 36 36
31 32 32 32 33 33 33 33 33 33 33 32 32 32 32 33 33 32 32 32 31 31 31 31 32 31 31 31 31 30 31 32 33 34 35 35 35 36 36 36 37 37 37
27 28 29 30 29 30 31 31 31 31 32 32 31 32 32 32 31 31 31 31 31 31 31 31 32 31 31 31 31 31 30 32 32 33 33 34 35 35 35 35 35 36 36
24 25 25 26 27 28 28 29 30 30 30 31 31 30 31 31 30 30 30 30 30 30 31 31 31 31 32 32 31 31 30 30 31 32 32 32 32 33 34 33 33 34 35
23 23 22 23 24 25 25 25 26 27 27 28 28 28 29 29 29 30 30 29 29 29 29 30 30 30 30 30 30 29 29 30 30 30 30 31 31 31 32 33 33 33 34
22 23 22 22 22 23 23 23 23 23 24 25 25 26 26 27 28 28 28 28 28 28 28 28 29 29 29 29 28 27 28 28 27 28 28 28 28 29 29 29 31 31 32
20 20 21 21 21 21 22 22 21 22 22 22 23 23 23 24 25 26 26 26 26 25 25 26 26 27 27 27 27 26 27 26 26 26 25 25 25 26 27 28 29 28 29
18 19 18 18 19 19 19 19 20 20 20 20 20 20 20 21 21 22 22 22 22 22 22 23 23 24 24 24 24 24 24 24 24 24 23 23 23 24 25 25 26 27 28
16 16 16 16 16 16 16 17 17 16 16 16 16 16 17 17 18 19 19 18 19 19 19 19 20 20 20 20 20 21 21 20 21 21 21 21 22 23 24 24 24 24 25
14 14 13 13 13 13 13 13 13 13 13 13 13 13 13 13 13 14 14 15 15 16 17 16 16 16 17 17 17 18 17 18 19 19 20 20 21 21 22 22 22 23 23
13 13 12 12 11 11 11 10 10 10 10 10 9 9 9 9 9 10 10 11 11 11 12 11 11 12 13 13 14 14 15 15 15 16 17 17 18 19 19 20 21 21 22
10 10 9 9 9 9 8 8 7 7 7 6 6 5 5 6 6 6 7 7 8 8 8 8 9 9 9 10 11 12 12 12 12 13 14 15 16 17 18 19 19 20 20
9 8 8 8 8 8 7 6 5 3 3 3 3 3 3 3 4 4 5 5 5 5 5 5 6 6 7 7 8 8 9 9 10 11 12 13 14 15 15 16 16 16 17
7 7 6 7 7 6 5 5 4 2 1 0 1 2 2 3 3 4 4 3 3 2 2 3 3 4 4 5 5 5 6 6 7 8 10 11 12 12 13 13 14 15 16

GEFSMA_500_meanwind_150.txt.gz
Wind_Speed
20 20 21 22 21 21 21 21 21 21 21 22 21 20 21 21 20 20 19 19 20 20 20 20 20 20 20 20 20 20 21 21 22 22 22 23 23 22 22 21 21 21 20
20 20 21 22 21 21 22 22 23 22 22 23 22 22 22 21 21 21 21 21 22 21 21 21 22 21 21 21 22 22 22 22 23 24 23 24 24 24 24 24 23 23 22
22 22 22 22 22 23 24 24 24 24 23 23 23 23 23 23 23 23 23 23 23 23 23 22 22 22 22 22 22 22 22 23 23 24 25 25 26 26 25 25 25 25 24
24 24 24 24 24 24 24 25 25 25 25 25 24 24 24 23 23 23 24 24 24 24 24 24 23 23 23 23 23 23 24 24 24 24 25 26 26 27 28 27 27 27 26
25 25 25 25 25 26 26 26 26 26 26 25 25 25 25 25 25 25 25 25 25 26 25 25 25 25 24 24 24 24 25 25 25 25 25 26 27 28 29 29 29 29 29
26 26 26 27 27 27 27 28 28 27 27 27 26 26 26 26 26 25 26 27 27 27 27 26 26 26 26 26 26 26 26 26 27 26 26 26 27 28 29 30 31 31 31
27 27 28 28 29 29 27 28 28 27 27 27 27 27 27 28 28 27 27 27 28 28 28 28 28 27 27 27 28 28 27 27 27 27 27 28 28 29 29 30 31 31 32
27 28 29 30 29 30 29 28 28 28 28 28 28 28 28 28 28 28 28 28 27 28 28 28 28 28 28 28 29 29 28 27 28 29 29 29 30 30 31 30 30 32 32
27 28 30 31 31 31 30 31 30 30 30 30 30 30 29 28 27 27 28 28 28 29 28 28 28 28 28 28 28 30 30 29 29 30 30 30 30 30 31 31 31 32 33
29 30 31 31 32 32 32 32 32 31 31 31 31 31 31 30 28 27 28 28 28 28 29 28 28 28 29 29 29 30 31 31 30 30 31 31 32 31 32 32 32 33 34
31 31 31 32 32 31 32 32 32 32 31 31 31 30 30 30 30 29 28 28 28 28 29 29 29 29 29 30 29 30 31 31 31 31 31 31 32 32 32 32 32 33 33
31 31 31 32 32 31 32 33 33 32 31 31 31 31 30 30 30 30 29 29 29 29 29 29 28 28 28 29 30 30 30 30 30 31 31 31 31 31 31 32 33 32 32
29 29 30 30 31 31 32 32 32 31 31 32 32 32 31 31 31 31 31 30 30 30 29 29 29 29 28 29 29 30 30 30 30 30 30 30 30 30 31 32 32 32 32
27 28 29 29 30 30 30 31 31 31 30 30 30 30 31 31 31 31 31 30 30 29 29 29 29 30 29 29 29 30 30 31 30 30 30 30 29 29 30 30 30 30 31
26 26 27 27 28 28 28 28 28 28 28 28 28 29 29 30 30 30 30 30 30 29 28 28 28 29 29 28 29 29 29 29 29 30 30 29 29 29 29 30 30 30 30
25 25 25 25 25 25 25 26 27 27 27 27 27 27 27 27 28 29 30 29 29 28 28 27 26 27 26 27 27 27 27 28 27 28 28 28 27 27 28 28 29 29 29
24 25 24 24 23 23 24 24 24 24 25 25 25 25 25 26 26 27 27 27 27 26 26 26 25 25 25 25 25 24 24 25 25 25 25 25 25 25 25 25 25 26 26
22 22 22 22 22 22 22 22 22 22 22 23 23 23 23 24 24 24 24 24 24 24 24 23 22 22 22 22 22 22 22 22 21 21 21 20 21 20 21 21 21 22 23
21 21 21 21 21 20 20 21 20 20 19 20 20 21 21 20 20 20 21 21 21 21 21 20 20 19 19 20 20 20 19 19 18 18 18 18 18 18 19 20 20 21 22
20 20 20 19 19 19 19 18 18 17 17 17 17 16 17 17 16 17 18 18 18 18 18 18 17 17 17 17 17 17 17 17 17 17 17 17 17 18 19 19 19 19 20
19 19 18 18 17 17 17 16 15 15 15 15 15 14 14 14 14 14 15 15 15 15 14 15 14 13 13 13 13 13 14 14 15 15 15 16 16 16 17 17 17 18 19
17 17 16 16 15 15 14 13 13 13 13 13 12 11 11 11 11 11 11 12 12 12 12 11 11 10 10 10 10 10 11 11 11 12 13 13 14 15 16 16 17 17 18
15 14 14 13 13 12 11 10 10 10 10 9 9 9 9 8 8 8 7 8 8 9 8 8 8 8 8 7 8 9 10 10 10 11 12 12 12 13 14 15 15 16 16
12 12 11 11 10 9 9 8 8 8 7 7 6 6 6 6 5 5 4 4 5 5 5 5 6 6 6 7 8 9 9 10 10 10 10 10 10 11 12 13 13 14 14
10 10 10 9 8 7 7 7 6 5 5 4 4 4 3 3 2 2 2 2 3 4 4 4 4 3 3 5 6 7 8 8 8 9 8 9 9 10 11 12 12 12 13
8 9 8 8 7 7 6 6 5 5 4 4 4 3 2 0 1 2 3 3 3 3 2 2 1 1 2 3 4 5 6 7 7 7 8 8 9 9 10 11 11 12 14

GEFSMA_500_meanwind_156.txt.gz
Wind_Speed
23 22 23 23 23 23 24 24 24 23 22 22 22 21 21 21 20 19 19 19 19 20 19 19 19 18 17 17 18 18 18 18 19 19 20 21 21 21 21 21 22 22 22
22 22 23 23 23 22 22 23 23 23 23 23 23 23 23 22 21 21 21 20 20 21 20 20 20 19 18 18 19 19 19 19 20 20 21 22 22 23 23 23 24 24 24
22 23 23 23 23 22 21 21 22 22 23 23 24 24 23 23 22 22 22 21 21 21 21 21 21 22 21 20 20 21 21 21 20 20 21 22 22 23 25 25 25 25 26
22 23 23 24 24 23 23 23 23 23 24 24 24 24 24 24 23 23 23 22 22 22 22 22 22 23 23 23 22 22 22 22 22 21 22 22 22 23 24 25 26 27 27
22 23 23 24 24 24 24 24 24 24 24 24 24 24 25 26 25 24 24 24 23 23 23 23 23 23 24 24 23 23 23 23 24 24 24 24 24 24 25 25 26 27 28
23 23 24 24 25 25 24 24 25 25 25 25 26 26 26 26 26 25 25 25 24 24 23 23 23 23 23 24 24 24 24 24 25 25 25 25 25 25 25 26 26 28 29
24 25 25 24 25 26 26 26 26 26 26 27 27 27 27 27 27 25 25 25 25 25 25 24 24 24 24 25 25 24 25 25 26 26 26 26 25 25 25 26 27 28 28
25 26 26 25 26 27 28 28 28 28 28 28 28 27 27 27 27 26 26 26 25 25 25 25 25 25 25 25 25 26 25 26 26 27 27 27 27 27 27 27 27 29 29
26 27 27 27 27 28 29 29 29 29 29 29 29 28 27 27 27 27 27 27 26 26 26 26 25 25 25 25 25 26 27 27 27 28 28 29 29 28 28 28 29 29 30
27 28 28 28 28 28 28 28 28 29 29 29 29 29 29 29 28 27 27 27 27 26 26 26 26 26 26 26 25 26 26 27 28 28 29 29 29 29 29 29 29 29 30
27 27 27 27 27 27 27 27 28 29 29 29 30 30 30 29 29 28 27 27 27 26 26 26 26 25 25 26 26 26 26 26 28 29 29 30 30 30 30 30 30 30 30
26 26 26 26 27 27 27 27 28 28 28 29 29 30 30 29 29 29 28 27 27 27 27 26 26 26 25 25 26 26 26 26 27 28 28 29 30 30 30 30 29 30 31
26 25 25 25 25 25 25 25 26 26 27 28 28 28 28 28 29 29 29 28 28 28 28 27 26 26 26 26 26 26 26 25 25 26 27 27 28 28 28 29 28 29 30
26 25 24 24 24 23 23 24 24 25 25 26 26 27 28 28 28 28 29 29 28 28 28 27 27 26 26 25 25 25 25 24 24 24 24 25 26 26 27 27 28 28 29
25 24 23 22 23 23 22 23 23 23 24 23 23 25 26 26 26 26 26 27 28 27 27 27 26 25 24 23 23 23 23 23 23 23 23 24 24 24 25 25 25 26 27
23 23 22 21 21 21 21 21 21 21 21 21 21 22 22 23 24 24 25 26 27 27 26 25 25 24 23 23 23 24 23 23 22 22 22 22 22 22 22 23 22 23 24
21 20 20 20 19 19 19 19 19 19 19 19 19 19 20 20 21 22 22 22 23 24 24 24 24 24 23 23 23 23 23 23 21 20 19 19 19 19 19 20 21 21 22
20 19 19 18 18 18 18 17 17 17 17 17 18 18 18 18 18 18 19 20 20 20 21 21 21 22 21 21 21 20 20 19 19 17 16 16 17 17 18 18 19 20 20
19 18 17 17 17 17 17 16 16 15 15 15 15 16 16 17 16 16 16 16 17 17 17 18 18 19 19 18 17 16 15 15 16 15 15 15 16 16 17 17 18 18 18
17 16 17 16 15 15 15 14 13 13 13 12 13 13 14 14 14 14 14 14 15 15 15 16 17 17 16 16 15 14 13 13 14 14 15 15 15 15 16 16 17 17 17
15 14 14 13 13 12 12 12 11 11 11 10 10 10 11 11 10 10 11 11 12 12 12 13 13 14 14 14 14 13 12 12 12 14 15 15 15 15 15 16 15 16 16
13 13 12 11 11 10 9 9 9 9 8 8 9 9 9 8 8 8 8 8 9 10 10 10 11 11 11 12 11 11 11 11 11 12 12 13 13 14 14 14 15 15 16
11 10 10 9 8 7 6 6 6 6 5 5 6 6 5 5 5 5 5 6 6 7 9 9 9 9 9 10 10 10 10 10 10 10 11 12 12 12 12 13 13 14 14
10 9 8 6 6 5 4 3 4 4 4 3 4 3 2 2 2 2 3 4 4 5 7 7 7 8 8 8 8 8 8 9 10 10 10 10 11 11 11 12 12 12 13
9 8 7 6 6 5 4 4 4 4 4 4 3 2 1 1 1 1 2 3 4 4 5 5 5 5 6 7 7 7 7 8 8 8 8 8 9 9 10 11 11 11 12
8 7 7 6 6 5 5 4 4 4 4 3 3 2 1 1 1 1 2 3 3 4 4 4 3 3 4 4 5 5 5 6 6 6 6 6 7 8 8 9 9 10 11

GEFSMA_500_meanwind_162.txt.gz
Wind_Speed
21 23 23 23 24 24 25 25 25 25 25 25 25 25 25 24 23 22 22 22 21 21 20 19 19 19 19 19 19 19 19 18 18 18 18 19 19 19 19 19 19 18 19
21 22 23 24 24 23 24 24 25 26 26 26 26 26 26 25 25 24 23 23 22 22 21 20 20 20 20 20 20 20 20 20 20 19 19 19 19 20 20 21 21 21 21
21 22 22 23 23 23 23 24 24 25 25 25 25 25 25 25 25 25 24 24 23 22 22 21 21 21 22 22 22 22 21 21 21 20 20 20 20 20 21 21 22 22 23
22 23 23 23 23 23 23 24 24 24 25 25 25 25 25 26 26 26 26 25 25 24 24 24 23 23 23 22 22 22 22 22 22 22 21 21 22 21 22 22 23 23 23
23 23 23 24 24 25 24 24 25 26 26 26 26 26 27 27 27 27 26 26 26 25 25 25 24 24 24 23 23 23 23 23 23 23 23 23 24 24 24 25 25 25 25
24 24 25 25 25 26 25 26 26 26 26 26 27 27 27 27 28 28 27 26 26 26 26 26 25 25 25 24 24 24 23 23 23 24 25 25 25 25 26 27 27 28 27
25 25 26 26 26 27 27 27 27 26 26 26 27 28 28 28 29 29 29 29 28 28 27 26 25 25 25 25 25 25 25 24 24 25 25 26 26 26 27 28 28 28 29
27 27 27 27 27 27 28 28 27 27 27 27 27 28 29 30 30 30 30 30 30 29 28 28 27 26 26 25 26 26 26 26 26 26 26 27 26 27 27 28 29 29 30
28 27 27 27 27 27 27 28 28 28 27 27 28 28 28 29 31 31 31 31 31 30 29 28 27 27 26 27 27 26 26 26 27 27 27 28 28 28 28 29 29 30 30
28 27 27 27 28 27 27 28 28 28 28 29 29 29 29 29 31 31 31 31 31 30 30 29 28 27 27 27 27 27 27 27 27 27 28 29 29 29 29 30 30 30 31
28 28 28 28 28 28 28 28 28 28 28 29 29 30 30 30 31 31 31 31 31 31 31 30 29 29 29 28 28 28 28 28 28 28 29 29 30 30 30 30 30 30 30
28 28 29 28 28 28 28 28 28 28 28 29 29 29 30 30 30 31 30 30 30 31 31 31 30 30 29 29 29 29 29 29 29 29 29 30 30 30 30 29 29 29 29
28 28 28 28 28 28 28 28 28 27 27 27 27 27 28 29 29 29 29 30 30 30 31 32 31 30 30 30 29 29 29 30 29 30 29 29 29 29 29 29 28 28 28
28 28 28 28 28 28 27 27 26 26 25 25 25 25 26 27 28 27 28 29 29 29 30 31 31 31 30 29 29 29 29 29 29 29 29 29 29 29 29 29 28 27 27
26 26 26 26 26 26 25 25 25 24 24 24 24 24 25 26 27 27 27 28 28 28 29 30 30 30 29 28 28 28 29 29 28 28 28 28 28 27 27 28 28 27 27
24 24 24 24 24 23 23 23 23 22 21 21 22 22 22 23 24 25 26 27 27 27 27 28 28 28 28 28 28 28 28 28 27 27 26 25 25 24 24 24 25 26 25
21 21 22 22 22 21 21 21 20 20 20 20 20 20 21 21 22 23 24 24 24 24 24 24 25 25 26 26 26 26 26 26 25 25 24 24 23 23 23 23 24 24 24
20 20 20 20 20 20 19 19 18 18 18 18 17 17 18 18 19 19 20 21 21 21 22 21 22 22 24 24 24 24 23 23 22 23 23 23 23 23 23 24 23 23 23
18 18 19 19 18 17 17 17 17 16 16 16 15 15 15 15 16 17 17 18 19 19 19 20 20 20 21 22 21 21 20 19 19 19 19 20 20 20 21 21 22 21 22
16 16 15 15 15 14 14 14 14 15 15 14 14 13 14 13 13 14 15 15 15 16 16 18 18 18 18 17 17 17 17 17 16 16 16 17 17 19 20 20 20 20 20
15 15 14 13 13 13 13 13 13 13 13 13 12 12 13 12 12 12 12 13 13 13 14 16 16 16 15 15 15 15 16 15 15 15 15 15 16 17 18 18 18 18 18
14 13 12 12 12 12 12 11 11 11 10 10 10 11 11 11 11 10 10 11 11 12 12 13 13 13 14 13 14 14 14 14 14 14 15 15 15 15 15 16 17 17 17
12 11 11 11 11 11 10 10 9 9 8 8 8 8 9 9 8 8 8 8 8 9 9 9 10 11 12 12 13 13 13 13 13 13 14 14 14 14 14 14 15 17 17
10 10 10 11 10 10 9 9 8 6 6 6 5 5 6 6 5 5 5 5 5 5 6 7 9 10 10 11 11 12 12 12 12 12 12 12 11 12 12 13 14 14 15
9 9 9 10 9 9 8 8 7 6 5 4 3 3 3 3 3 2 2 2 3 3 4 5 6 7 8 8 9 10 11 11 11 11 11 11 11 11 11 12 13 13 13
9 9 9 9 9 8 8 7 7 5 5 4 4 4 3 1 1 1 1 0 0 1 2 2 3 4 5 6 7 8 9 10 10 10 10 10 10 10 10 11 11 11 11

GEFSMA_500_meanwind_168.txt.gz
Wind_Speed
24 24 24 24 23 23 23 24 24 25 25 25 25 25 25 25 25 24 24 24 24 23 22 22 22 22 21 20 20 20 20 19 20 20 20 20 20 20 20 20 20 20 20
24 25 25 25 24 24 24 25 25 25 26 26 26 26 25 26 25 25 25 25 25 25 25 24 23 23 22 21 21 21 20 21 21 20 20 20 21 21 21 21 21 21 21
24 24 25 25 25 24 24 25 25 25 26 27 27 26 26 26 26 26 26 26 27 27 26 26 25 25 23 23 22 21 21 21 21 22 22 22 22 22 22 23 23 23 23
25 25 25 26 26 26 26 26 25 26 26 27 27 27 27 27 27 26 25 26 28 28 27 27 27 26 25 24 24 23 23 22 22 22 23 22 23 23 23 24 24 24 24
26 26 27 27 27 27 27 26 26 26 27 27 27 28 27 27 27 27 26 26 27 28 28 28 28 28 27 26 25 24 24 23 22 23 24 24 24 24 24 25 25 25 26
27 27 28 29 29 29 28 27 28 28 28 28 28 28 28 28 27 28 28 28 28 28 29 29 29 29 29 27 26 25 25 24 23 23 24 25 25 25 25 26 26 26 27
29 29 29 30 30 30 29 28 29 29 29 28 28 28 28 28 28 29 30 30 30 29 30 30 30 30 29 28 28 27 25 24 24 24 24 24 25 25 26 26 27 28 28
31 31 31 31 30 30 30 30 29 30 30 30 29 29 29 29 28 29 30 31 31 30 30 30 31 31 30 30 29 28 27 26 25 25 25 25 25 26 26 27 27 28 28
30 31 31 31 31 30 30 30 30 30 30 30 29 29 29 29 29 29 30 31 32 31 31 31 31 31 31 30 30 30 29 28 27 26 26 26 26 26 25 26 27 27 28
30 30 31 31 31 31 30 30 30 30 29 30 29 29 29 29 29 29 30 30 31 32 33 32 31 31 31 30 29 30 29 29 28 27 27 27 26 25 25 25 25 26 28
29 30 30 30 30 30 30 30 30 29 29 28 29 29 29 29 29 30 30 30 30 31 32 32 31 30 30 30 30 30 29 29 29 28 27 27 27 26 25 25 25 26 27
29 29 29 29 29 29 29 29 29 28 29 28 29 29 29 28 29 29 29 30 30 30 30 31 30 30 30 30 31 30 30 29 29 29 28 28 27 26 25 25 26 26 27
29 28 29 28 28 28 28 27 27 27 27 28 28 27 28 28 27 28 28 28 28 28 29 30 30 30 30 30 31 31 31 30 29 30 30 29 28 27 26 26 25 25 26
26 26 26 26 26 26 25 25 25 25 25 26 26 26 26 26 26 26 25 25 25 26 27 28 29 30 30 30 31 31 31 30 30 30 30 30 29 29 28 27 27 26 26
25 24 24 24 23 23 24 24 24 24 23 23 23 24 25 25 25 25 25 25 25 24 25 27 28 28 29 30 30 31 30 30 31 31 30 30 29 29 29 28 28 28 27
22 22 22 21 21 21 21 22 22 22 22 21 22 22 23 23 23 23 25 25 26 25 24 26 27 27 28 28 29 29 30 30 29 30 30 30 30 29 29 29 29 29 28
20 20 20 19 19 19 19 19 19 20 20 19 19 19 19 20 21 21 22 22 23 24 24 24 25 26 27 28 28 28 28 27 27 28 28 28 28 28 28 28 28 28 27
19 19 18 17 17 17 17 17 17 17 17 16 16 16 16 17 18 19 20 21 21 21 22 22 22 23 24 25 25 26 26 26 26 26 26 26 27 27 27 26 26 26 26
18 17 16 16 16 16 16 15 14 15 15 14 13 13 14 15 16 17 17 18 18 19 19 19 20 21 21 22 22 22 22 23 24 24 25 25 25 25 25 24 24 24 24
16 15 15 16 15 14 14 14 14 14 13 13 13 13 14 13 14 15 14 14 15 16 16 17 17 18 19 19 18 18 19 20 21 21 21 21 21 21 21 21 21 21 21
14 14 14 14 13 13 13 13 13 12 11 11 12 12 12 12 12 12 12 12 13 13 13 14 14 15 17 17 17 17 17 18 18 19 19 19 20 20 20 20 19 19 18
12 12 12 12 11 11 12 11 10 10 10 10 9 9 9 9 10 10 10 10 10 11 11 11 11 12 13 14 14 15 16 16 16 16 17 17 18 18 18 17 17 17 17
11 11 11 11 10 10 10 10 9 9 8 7 6 6 6 6 6 6 6 7 7 7 8 10 9 9 9 11 11 12 12 14 15 15 14 13 14 15 15 15 15 15 16
10 10 9 10 10 10 9 9 9 8 6 5 5 5 4 4 3 3 3 4 4 4 5 6 8 8 8 8 9 10 11 11 13 13 13 13 13 13 13 13 14 14 15
9 9 9 9 9 9 9 8 8 7 6 5 5 4 3 2 2 2 2 2 3 3 3 3 4 5 5 7 8 9 9 10 11 12 12 13 13 13 13 14 14 14 14
9 8 8 8 8 7 7 7 7 7 5 5 5 4 3 2 2 2 2 2 2 2 2 2 3 4 4 5 6 7 8 9 10 10 11 12 13 13 14 14 14 14 14

GEFSMA_500_meanwind_174.txt.gz
Wind_Speed
24 24 24 24 24 24 24 24 24 24 23 24 24 23 23 24 25 25 25 25 25 26 26 25 24 24 24 24 23 22 21 21 21 22 22 22 23 24 24 24 23 23 22
24 24 25 25 25 24 24 24 25 25 25 25 25 25 25 25 25 24 26 26 26 26 27 26 26 26 25 25 24 23 23 22 22 21 21 22 23 24 23 24 24 24 24
26 26 27 27 27 27 27 27 27 27 27 27 26 25 25 26 26 26 27 27 28 27 27 27 26 27 27 27 26 25 23 22 21 22 22 21 22 24 24 24 25 25 26
27 27 28 28 29 30 29 29 28 28 29 29 28 27 27 27 27 27 28 28 29 28 28 28 27 27 27 27 27 26 25 24 23 22 22 23 22 23 24 24 25 26 26
28 29 29 30 31 31 31 31 30 30 29 29 29 28 28 27 28 28 28 28 29 29 29 29 29 29 28 28 28 27 26 26 24 23 22 23 23 22 23 24 24 26 26
29 30 30 31 31 32 32 32 32 31 30 30 30 29 28 28 28 29 29 29 29 28 28 29 29 30 28 28 28 27 27 27 26 24 23 24 24 24 24 23 24 25 26
30 31 32 32 32 32 33 33 33 32 31 30 30 29 29 28 28 28 28 28 29 29 28 28 29 29 28 29 29 29 28 28 27 26 25 24 24 24 24 24 24 25 26
31 32 32 32 33 32 32 32 32 32 31 31 30 29 29 29 29 28 28 28 28 29 29 29 29 28 29 29 30 30 29 28 28 27 27 26 26 25 24 24 25 25 26
32 32 33 33 33 32 31 31 32 32 30 30 30 29 29 29 28 28 28 29 29 28 29 29 29 29 28 29 29 28 28 28 28 28 27 27 26 26 25 25 25 24 25
31 31 32 32 32 32 31 31 31 30 29 29 30 30 29 29 29 29 29 29 29 28 28 28 28 28 28 29 29 28 28 28 27 27 27 26 25 25 24 23 23 23 23
30 31 31 31 31 30 30 30 29 28 27 28 28 28 29 29 29 29 28 29 29 29 29 29 29 28 29 29 29 29 28 28 28 27 26 25 25 24 23 23 22 23 23
29 30 30 30 29 28 27 26 26 26 26 26 26 27 27 28 28 28 28 28 28 29 28 29 28 28 28 29 29 30 28 27 27 27 26 26 25 24 24 24 24 23 23
28 28 28 28 27 26 24 24 23 23 24 24 24 25 26 26 26 26 26 26 27 27 27 28 27 27 27 27 28 29 28 27 27 26 27 26 25 25 25 25 25 24 23
27 27 27 26 25 24 23 22 22 22 23 22 23 24 25 25 24 24 23 23 24 24 25 26 25 25 25 26 26 27 27 27 27 26 26 26 26 26 25 25 24 24 23
27 26 25 24 24 23 22 21 21 20 20 20 20 21 22 22 22 22 22 22 23 23 23 24 24 23 24 25 24 24 25 25 26 26 25 25 27 27 26 25 24 24 24
26 25 24 23 23 22 20 20 19 19 19 19 19 19 19 20 20 21 21 21 22 22 21 21 22 22 22 23 23 22 22 23 25 25 25 25 26 26 26 26 26 26 25
24 23 23 22 21 19 19 18 17 17 17 17 17 17 18 18 18 19 19 19 19 19 20 19 19 20 20 20 21 21 21 22 23 25 25 26 26 25 26 27 27 26 26
21 20 19 19 18 17 17 17 17 16 16 17 17 17 17 16 16 16 16 15 16 17 17 16 16 17 18 18 19 20 20 21 22 23 24 25 25 25 25 26 26 26 26
19 18 17 16 16 15 16 16 15 15 15 15 15 15 14 14 14 14 13 12 13 14 15 16 16 16 17 17 18 17 18 19 21 22 22 23 23 24 24 24 25 25 25
16 16 15 14 14 15 15 15 15 15 15 14 14 13 13 13 13 12 11 11 11 12 12 14 15 16 16 16 16 16 16 17 18 19 20 21 21 22 23 23 23 24 24
14 14 13 13 14 14 15 15 15 14 14 13 13 12 12 12 12 11 10 11 11 10 11 12 12 14 14 14 14 14 15 15 16 17 18 18 20 20 20 20 21 22 23
13 13 12 13 13 14 15 15 15 13 13 12 11 11 10 10 10 11 10 9 9 9 9 9 9 10 10 11 12 12 12 12 13 14 15 16 17 18 19 19 20 21 22
13 12 12 12 13 14 14 14 13 13 12 11 10 9 10 10 10 9 9 8 8 8 7 6 6 7 9 9 9 10 11 12 12 12 13 13 15 16 17 17 18 19 19
13 13 12 12 13 14 13 13 13 12 11 10 9 9 9 8 8 8 8 8 8 7 6 5 5 6 7 7 7 8 9 9 10 11 11 11 12 14 14 15 16 17 18
12 11 11 12 13 13 13 13 12 12 11 10 8 8 8 8 8 8 7 7 6 6 5 5 4 4 5 5 6 8 8 9 9 10 11 11 12 12 13 14 15 15 16
12 12 13 13 13 12 13 13 12 11 10 9 9 8 8 7 7 7 8 7 6 6 6 5 5 5 5 6 7 8 8 9 10 10 11 11 11 12 12 13 13 14 14

GEFSMA_500_meanwind_180.txt.gz
Wind_Speed
23 24 23 23 23 23 22 22 23 23 23 24 24 25 25 25 25 26 27 27 27 27 26 25 25 25 24 24 25 25 26 25 24 24 24 23 23 23 24 24 25 26 25
24 24 24 24 24 23 23 24 25 25 25 25 25 26 26 27 27 27 28 28 27 27 27 27 27 26 25 24 24 25 26 26 26 25 25 24 24 23 23 24 25 26 27
24 25 25 25 25 24 24 25 26 26 26 27 27 27 27 28 28 28 29 29 28 27 27 27 27 27 26 25 25 25 26 26 26 27 26 25 24 24 24 23 25 26 27
26 25 26 26 26 26 26 26 27 27 28 28 28 28 28 29 29 29 29 29 29 28 28 27 27 27 27 27 26 26 27 27 27 27 27 26 25 25 26 25 25 26 27
27 27 26 27 27 26 27 27 28 29 28 28 28 28 29 29 29 29 29 29 29 29 29 28 28 28 28 27 27 26 27 28 28 28 28 28 26 26 26 26 26 26 26
27 27 28 27 27 27 27 27 28 28 28 29 29 28 28 28 29 29 29 29 29 30 29 29 29 29 29 28 28 27 28 28 29 29 29 29 28 28 27 27 27 27 27
28 28 29 28 28 28 28 29 29 29 29 29 28 28 28 27 28 28 29 29 29 29 29 29 30 29 29 29 29 28 28 28 29 29 29 30 29 29 28 28 28 27 28
29 29 28 28 28 29 29 30 29 29 29 29 29 29 28 27 27 28 29 29 28 28 28 28 29 29 30 29 28 28 28 30 30 30 30 30 30 29 29 29 28 28 27
27 28 27 28 29 30 29 29 28 28 28 28 28 28 28 27 27 27 28 29 29 29 29 29 29 28 28 29 29 28 28 29 29 29 30 31 31 30 29 29 28 28 28
27 27 27 28 29 28 28 28 28 27 26 26 26 27 27 26 25 25 26 27 27 28 28 29 28 27 27 27 29 29 29 30 29 29 30 30 31 31 30 30 29 29 29
26 27 27 27 27 26 27 27 27 26 25 25 25 25 24 24 24 24 24 25 25 26 26 27 27 28 27 27 27 28 29 30 30 30 30 30 30 30 30 29 29 29 29
26 26 25 25 25 25 25 25 24 24 23 22 23 23 23 22 22 22 22 23 24 24 25 25 26 27 27 27 27 28 28 29 29 29 29 30 29 30 30 29 29 29 29
25 25 25 25 24 25 24 23 23 22 21 20 20 20 20 20 20 21 22 22 23 23 24 25 25 25 26 27 27 28 29 29 29 29 29 29 29 30 30 29 28 28 28
25 24 24 24 24 23 23 22 21 20 19 19 18 18 17 18 18 19 19 19 20 21 22 23 24 24 25 26 26 27 29 29 28 29 30 30 29 30 30 30 29 28 28
23 23 23 23 22 22 22 21 20 20 19 18 17 16 16 17 17 17 17 18 18 19 20 20 21 23 24 24 25 26 27 27 27 28 29 29 30 30 31 31 31 30 29
22 21 20 20 20 21 20 20 19 18 17 16 16 16 16 16 16 16 16 17 17 17 17 18 19 21 21 22 23 23 24 25 27 27 27 28 29 30 30 30 30 30 29
20 20 19 19 19 19 19 18 18 16 16 15 15 15 14 14 14 14 14 14 15 16 16 16 17 18 19 20 22 22 23 25 26 26 26 26 27 28 29 30 29 30 30
19 19 18 17 17 17 17 17 16 15 14 14 13 13 12 12 12 13 13 14 14 14 14 15 15 16 17 18 18 20 21 22 22 23 24 25 26 26 28 29 29 29 30
17 17 17 17 17 16 16 15 14 13 13 13 13 12 12 12 12 12 12 13 13 13 13 13 14 14 15 15 16 18 18 19 20 21 22 23 24 25 26 27 28 29 30
15 15 15 16 16 14 14 14 13 12 12 13 12 12 11 11 11 11 11 11 12 12 12 12 13 13 13 14 15 17 18 19 20 20 22 23 24 24 25 26 28 29 29
15 15 15 15 14 13 13 12 12 12 12 12 11 11 11 10 11 11 10 10 10 10 10 11 11 11 12 13 14 15 16 17 18 19 21 22 23 23 24 25 26 27 28
13 14 14 14 13 13 13 12 12 12 12 11 11 10 10 10 10 10 10 10 11 11 11 11 11 10 10 10 11 14 15 16 17 18 20 20 20 21 21 23 24 24 25
12 12 12 12 12 12 12 12 11 11 11 11 11 10 11 10 10 10 10 10 11 11 11 11 11 11 10 10 10 12 13 15 16 17 17 18 19 19 19 20 21 22 23
12 12 12 11 11 12 12 12 11 10 10 10 10 10 10 10 10 9 10 11 11 11 10 10 10 11 10 10 10 11 12 13 14 15 16 16 17 17 18 19 19 20 21
12 12 11 11 12 12 11 11 11 10 9 9 9 9 9 10 10 10 10 10 10 10 10 10 10 10 11 11 11 11 11 12 13 13 14 14 14 15 16 16 18 19 20
11 12 11 11 11 12 12 11 10 9 8 8 8 9 9 8 8 8 8 9 9 9 10 10 10 11 11 10 11 10 11 11 12 12 12 13 14 14 14 15 16 17 19

GEFSMA_500_meanwind_186.txt.gz
Wind_Speed
25 25 26 25 26 26 26 27 27 28 28 28 28 29 28 29 29 29 28 28 28 28 28 28 28 27 27 27 26 26 25 24 24 24 24 24 24 23 23 23 22 22 22
26 26 26 27 27 26 27 28 28 29 29 29 29 29 29 30 30 29 29 29 29 29 29 29 29 29 29 28 28 28 27 27 26 26 25 25 25 25 24 24 24 24 23
27 27 27 28 28 28 28 28 29 29 30 31 31 31 30 30 30 29 30 30 30 30 29 29 30 30 30 29 28 29 29 29 28 28 27 27 27 27 26 26 25 25 24
28 28 28 28 29 29 29 29 29 30 31 31 31 32 31 31 31 30 30 30 31 31 30 30 30 29 30 30 29 30 30 30 29 29 29 29 28 28 27 28 27 27 26
28 29 29 29 29 29 30 30 30 31 31 31 31 32 32 32 32 31 31 31 31 31 31 31 31 30 31 31 31 31 30 30 30 31 30 30 29 29 29 28 28 28 28
29 29 29 29 29 30 31 31 31 31 31 31 31 31 31 32 32 31 32 31 31 31 31 31 31 31 31 31 32 31 31 31 31 31 31 31 31 31 30 30 29 29 29
29 29 30 29 30 31 31 31 31 31 31 31 30 30 31 30 31 31 32 32 31 31 31 31 31 32 32 32 32 32 31 32 32 32 31 32 32 32 31 31 31 31 31
29 30 29 29 30 30 31 30 30 30 30 30 30 30 30 29 29 30 31 32 31 31 31 30 30 31 32 33 33 33 32 32 33 33 32 32 33 34 33 33 32 31 32
30 29 29 29 29 30 29 29 29 29 29 29 29 29 28 28 28 29 29 30 30 30 30 29 29 31 32 32 33 33 34 33 33 33 33 32 33 34 34 34 34 33 33
28 28 29 29 29 29 29 28 28 28 28 28 28 27 27 26 26 26 27 28 29 29 29 29 29 29 30 31 32 33 33 33 34 34 33 33 33 34 34 34 35 34 33
27 28 28 28 28 28 28 28 27 26 26 26 25 25 24 24 24 24 24 26 26 27 27 28 27 29 29 29 30 31 32 32 33 34 34 33 34 34 35 34 35 35 35
27 26 27 27 27 27 28 27 26 25 25 25 24 24 23 23 23 23 22 22 24 25 25 26 27 27 28 28 28 29 30 31 32 33 33 34 34 34 35 35 36 36 36
26 26 26 26 26 26 26 26 26 26 26 25 24 24 23 22 22 21 20 21 22 22 22 22 24 25 26 27 27 28 29 31 31 32 32 34 34 34 34 35 35 36 36
25 25 25 25 25 25 25 25 25 26 25 25 24 23 22 20 19 19 19 20 20 20 21 21 22 23 24 25 26 27 27 29 30 31 32 32 33 33 34 34 34 36 36
23 23 24 24 23 24 24 24 23 23 22 22 22 22 20 19 18 18 19 19 20 19 19 20 21 22 23 23 24 25 26 27 29 30 31 32 31 31 32 32 33 34 35
22 22 22 22 22 22 22 22 21 20 20 20 19 19 19 19 18 18 18 18 18 18 18 19 19 21 22 21 21 23 25 26 27 27 28 28 30 31 31 32 31 32 33
22 20 20 20 20 20 20 18 18 19 19 18 18 18 17 17 17 17 17 17 17 17 18 18 18 19 19 19 19 21 22 24 25 25 27 27 28 29 29 30 30 31 33
21 20 19 19 18 18 18 17 17 17 17 16 16 16 16 16 16 16 16 16 16 16 17 17 17 18 18 19 19 20 22 22 23 24 25 26 27 27 28 29 30 31 31
19 18 18 18 18 18 18 17 16 16 16 16 16 16 15 16 16 15 15 16 16 16 17 17 17 17 19 19 19 20 21 22 23 23 25 26 26 27 28 28 28 29 29
18 17 17 18 18 17 17 16 16 16 16 16 16 15 15 16 15 15 15 15 16 16 17 17 17 17 18 18 19 20 21 22 23 24 25 26 26 27 28 28 28 28 29
17 16 16 17 17 17 16 16 16 16 16 15 15 15 15 15 15 15 15 16 16 16 16 16 17 18 18 18 19 19 20 21 22 23 24 25 26 27 28 28 29 29 29
16 15 16 16 16 16 15 15 15 15 16 15 15 15 15 15 15 14 15 15 16 16 16 16 16 17 17 18 17 17 18 19 20 21 21 23 25 25 26 27 28 28 28
16 16 16 16 16 16 16 15 15 15 14 14 14 14 14 14 13 14 14 15 16 17 16 16 15 15 15 16 16 16 17 18 18 19 20 21 23 24 25 26 27 27 27
16 17 16 16 16 16 16 15 15 14 14 14 14 14 13 13 12 13 13 13 14 15 15 14 14 14 15 15 15 15 16 17 18 18 19 20 22 23 24 24 25 25 26
16 16 16 15 15 15 15 15 14 13 12 12 12 12 12 12 12 13 13 12 12 13 13 13 14 14 14 15 15 15 15 16 16 17 18 19 20 21 22 22 23 24 24
15 15 15 15 15 14 14 14 13 12 11 11 11 11 11 12 12 12 12 12 12 13 13 13 13 14 14 15 15 15 15 16 16 17 18 18 19 19 20 21 22 22 23

GEFSMA_500_meanwind_192.txt.gz
Wind_Speed
26 26 26 26 27 27 27 28 28 28 29 29 28 28 27 28 28 29 29 28 29 29 29 28 29 28 28 28 28 27 28 28 28 27 27 27 26 26 25 26 25 25 25
27 27 27 27 28 28 29 29 29 29 29 29 29 29 28 29 29 30 30 31 30 30 30 30 30 30 30 30 29 29 29 29 29 29 28 28 27 27 27 26 26 26 26
28 29 28 28 29 29 29 29 29 28 28 29 30 30 29 29 29 30 31 32 31 31 31 31 31 31 31 31 31 31 31 30 29 30 30 30 29 28 28 28 28 27 26
27 29 29 29 29 30 30 29 29 29 29 29 30 30 30 30 30 30 31 31 31 31 31 32 32 33 33 32 32 32 32 32 31 31 31 32 32 30 30 30 30 29 28
28 29 30 30 29 30 30 30 30 31 30 30 30 30 30 30 30 30 30 31 31 31 31 32 32 33 34 34 34 33 33 33 33 32 33 33 33 33 32 32 32 30 29
29 29 29 29 29 29 30 30 31 30 30 30 30 31 31 30 30 30 31 31 32 32 32 32 33 33 34 34 34 34 34 33 33 33 33 33 33 34 33 33 33 33 31
29 29 29 29 30 30 30 30 30 30 30 30 30 30 30 30 30 31 31 31 31 32 31 32 33 33 33 33 33 34 35 35 35 34 34 34 34 34 34 34 34 34 33
29 29 29 29 29 30 30 30 30 31 31 30 29 29 29 29 29 30 30 29 30 30 29 30 31 32 32 33 33 34 35 36 36 35 35 35 35 35 35 34 34 34 34
28 29 28 29 30 30 30 30 31 31 30 30 29 29 28 28 28 28 29 28 29 29 28 28 29 30 31 32 32 32 34 35 36 35 35 36 36 35 35 35 35 35 35
29 28 28 29 29 29 29 29 29 30 30 29 29 28 28 28 28 27 27 27 27 27 27 27 28 29 30 31 31 31 33 34 35 35 35 35 36 35 35 35 35 35 35
28 28 28 28 28 28 28 28 28 28 28 28 28 27 28 27 27 27 26 25 26 26 26 26 27 28 28 28 29 30 32 34 34 35 36 36 36 36 37 36 36 36 35
26 26 26 27 27 27 27 27 27 27 27 26 26 27 26 26 26 26 25 24 24 25 25 24 23 24 25 26 27 29 30 31 33 34 34 36 36 36 37 37 36 36 35
26 25 25 25 25 25 25 25 25 24 24 24 24 25 25 25 25 25 25 24 23 23 23 23 23 22 23 24 25 27 29 30 31 32 34 35 36 36 36 36 36 36 35
24 23 23 23 23 24 24 24 24 23 23 22 22 22 23 23 24 25 24 24 23 22 22 22 23 22 22 23 24 25 26 27 29 30 31 34 35 35 36 36 36 36 36
23 22 22 22 22 23 23 23 23 22 21 20 20 20 21 21 22 22 22 23 23 23 22 22 22 22 22 22 23 23 24 25 26 27 28 30 32 34 35 36 36 36 36
22 22 22 22 21 22 22 22 22 21 20 20 19 19 20 20 20 20 20 20 21 21 21 22 21 22 22 22 22 23 24 25 25 26 27 28 29 31 33 34 35 36 36
21 22 22 21 21 21 21 21 20 20 19 19 19 19 19 20 20 20 20 19 19 20 20 20 20 21 21 21 21 23 23 24 25 25 25 27 28 29 30 32 34 34 35
21 21 20 20 20 20 19 19 19 19 19 19 19 19 19 19 19 19 19 19 18 19 19 19 19 20 20 20 20 21 21 23 23 24 23 25 26 27 28 29 31 32 33
20 20 19 19 19 18 19 19 19 19 18 18 18 18 18 18 18 18 18 18 18 18 18 18 18 19 20 20 20 20 21 21 22 23 24 25 26 27 27 27 28 31 31
19 19 19 18 18 18 18 18 18 19 18 18 18 17 18 17 17 17 17 18 18 18 17 18 18 19 20 20 20 20 21 20 21 22 22 23 25 26 26 26 27 29 31
19 18 18 18 18 18 17 17 17 18 17 17 17 17 16 16 16 16 16 17 17 17 17 18 18 18 18 18 19 20 20 20 20 21 22 23 24 25 26 26 27 27 28
18 19 18 18 18 18 18 17 17 16 16 16 16 15 15 15 15 15 15 15 16 16 16 16 17 17 17 17 18 18 19 19 20 20 21 21 22 23 24 25 26 26 26
18 18 18 18 18 18 18 18 17 16 15 14 14 13 13 13 13 13 13 14 14 14 14 15 15 16 16 16 17 17 18 18 18 18 18 19 20 21 22 23 24 24 25
18 18 18 19 19 18 17 16 15 14 13 13 12 12 12 12 12 12 12 13 13 14 14 13 14 14 15 15 15 16 16 17 17 17 18 18 19 21 22 22 23 24 25
18 18 18 18 18 17 17 16 14 13 12 12 12 12 12 12 12 13 13 13 13 14 14 14 14 14 15 16 17 17 17 17 17 18 19 19 19 20 21 21 23 23 24
17 17 17 17 16 16 15 14 13 12 12 12 12 12 13 13 13 13 13 13 13 13 14 14 14 14 15 16 17 17 17 16 17 18 19 19 19 20 20 22 23 23 23

GEFSMA_500_meanwind_198.txt.gz
Wind_Speed
27 27 27 27 27 27 27 27 28 27 26 26 26 26 26 26 27 27 27 26 27 27 27 27 28 27 27 27 27 28 29 29 28 28 29 29 29 29 29 28 27 27 26
28 29 29 28 28 28 28 28 28 27 26 26 26 26 26 26 27 28 28 27 27 27 27 28 29 29 29 29 29 30 30 30 30 30 30 30 30 30 29 29 28 28 27
29 30 30 30 29 28 28 27 27 27 27 26 26 26 26 26 27 28 29 29 28 28 28 29 30 30 30 30 31 31 31 31 32 32 31 31 31 31 31 30 30 29 29
30 30 30 29 28 27 27 27 27 27 28 27 27 27 28 27 27 28 29 29 29 29 29 29 29 30 30 31 31 32 33 33 33 32 32 33 33 32 32 32 31 31 30
30 30 29 28 28 28 27 27 27 28 29 29 29 29 29 29 29 29 29 29 30 29 30 31 30 31 32 33 33 33 33 34 34 34 34 33 34 34 33 33 32 32 32
30 30 29 29 29 28 28 29 29 29 30 30 29 29 29 29 29 28 29 29 29 30 30 30 30 31 32 33 33 34 34 34 35 35 35 35 35 35 34 33 33 33 33
30 30 29 29 29 29 29 29 29 29 29 29 29 29 28 28 29 29 29 29 30 30 30 30 31 30 31 32 33 33 33 34 34 35 36 36 37 36 35 35 34 35 34
29 29 29 29 29 28 28 29 29 28 28 28 28 28 28 28 28 28 28 29 30 30 30 29 30 30 30 31 31 32 33 34 34 34 35 35 36 37 36 36 35 36 34
28 28 29 29 29 28 29 28 27 28 28 28 28 28 29 28 27 28 28 29 29 30 29 29 29 30 30 30 31 31 32 33 33 34 34 35 36 37 36 37 36 36 36
29 29 29 28 28 28 28 28 27 27 27 27 27 27 28 28 28 27 28 28 29 28 27 27 28 28 29 29 30 30 31 31 32 33 34 35 35 36 36 36 37 36 36
28 28 28 28 28 28 28 27 27 27 27 27 26 26 26 27 27 28 28 28 28 27 26 26 27 27 27 28 29 28 29 31 31 32 33 34 36 36 35 36 36 37 37
28 27 28 28 28 27 27 26 26 27 27 26 26 25 26 25 26 26 26 25 25 25 25 25 25 24 24 26 26 26 27 28 29 30 32 33 35 36 36 36 36 37 37
27 27 27 27 26 25 25 25 25 25 25 25 25 25 25 25 26 25 25 25 24 23 23 24 23 23 23 24 25 25 25 25 27 28 29 32 33 34 36 37 37 37 38
25 25 25 25 24 24 23 23 24 24 24 24 25 25 25 25 26 25 24 24 25 24 23 24 24 23 23 23 24 25 25 26 26 27 28 29 31 32 34 36 37 38 38
24 24 24 25 24 24 24 24 25 24 24 24 24 24 25 25 25 25 24 24 24 24 23 22 23 23 22 23 24 25 25 26 26 27 27 28 29 31 32 34 35 36 37
23 23 24 24 23 24 24 24 24 24 24 24 24 24 24 24 24 23 23 23 23 23 22 21 22 23 23 23 23 23 24 24 25 26 27 28 28 29 31 32 34 34 35
23 22 22 22 22 23 23 23 24 24 23 23 23 23 23 23 23 23 22 22 22 22 22 21 20 21 22 22 23 23 23 23 24 25 26 27 28 27 28 29 31 32 34
21 21 21 22 21 22 22 22 22 22 22 22 22 22 22 22 22 21 20 20 20 21 21 21 21 21 22 22 22 23 22 22 23 24 25 25 26 27 27 27 28 30 31
21 21 21 21 20 20 21 21 21 21 21 21 21 21 21 21 20 19 18 18 19 20 21 20 20 20 20 21 22 22 22 22 22 23 24 25 24 26 27 26 27 28 30
21 20 19 20 19 20 20 20 21 21 20 20 19 19 18 18 19 18 18 18 18 19 19 19 19 19 18 19 20 20 21 21 21 21 22 23 23 23 24 25 26 27 29
19 18 19 19 19 20 20 20 20 19 19 19 19 18 18 18 18 19 19 18 18 18 18 19 18 18 17 18 18 19 20 20 20 20 20 21 22 23 23 23 23 24 26
19 18 18 19 19 19 19 19 19 19 19 19 18 18 17 18 18 18 18 18 18 18 18 18 17 17 17 17 18 19 19 19 19 20 20 20 21 21 22 22 22 24 25
17 17 18 18 19 19 19 19 18 19 19 19 18 17 17 17 18 17 17 18 18 18 18 18 18 18 17 18 18 18 19 19 19 19 20 20 20 20 21 22 23 24 24
17 18 18 18 18 18 19 18 18 18 18 18 18 18 18 18 18 17 17 18 18 17 18 18 18 18 18 18 18 18 19 19 19 19 19 19 19 20 20 21 21 22 23
16 17 18 17 18 18 18 17 18 17 17 17 17 17 18 18 18 17 17 17 17 17 17 17 17 17 17 17 17 18 18 18 18 18 18 19 19 19 20 20 21 22 23
16 17 16 16 17 17 17 17 17 17 17 17 17 17 17 17 17 17 17 17 17 17 17 16 16 16 17 17 17 18 18 18 18 18 18 19 19 19 19 20 20 21 22

GEFSMA_500_meanwind_204.txt.gz
Wind_Speed
22 22 23 23 24 24 24 25 25 25 25 26 25 25 24 25 25 25 24 25 26 26 26 27 28 28 28 28 28 29 30 31 31 30 29 29 29 29 29 28 26 27 26
23 23 24 25 25 25 25 25 25 25 25 25 25 25 25 25 25 26 26 26 26 26 27 28 28 29 30 29 29 29 30 30 32 31 31 31 31 31 31 30 30 28 28
23 24 25 26 26 25 25 25 26 26 25 25 25 25 25 25 26 26 26 26 26 27 27 27 28 28 29 30 30 30 30 31 31 32 32 32 32 32 32 32 31 30 29
24 25 25 26 26 26 25 25 25 26 26 26 25 25 26 26 26 26 27 27 27 27 28 28 28 29 30 30 30 31 31 31 31 32 33 33 33 33 32 33 33 33 32
25 25 25 25 25 25 25 25 25 26 25 26 26 26 26 26 26 27 27 27 28 28 28 28 29 30 30 31 30 31 32 32 32 33 34 34 34 34 33 33 34 34 34
26 26 26 26 25 25 25 25 25 25 25 26 25 26 26 26 26 26 27 27 28 28 28 29 29 30 30 31 31 32 32 32 32 34 34 35 36 35 35 34 34 35 35
26 27 27 27 27 26 25 25 26 26 26 26 26 26 26 26 27 27 27 28 28 29 30 30 30 31 31 32 33 33 33 32 32 33 34 35 36 36 36 36 35 35 36
26 26 26 27 27 27 26 26 26 26 26 27 26 26 25 26 27 27 27 28 29 30 31 31 30 31 31 33 33 34 35 33 32 32 33 35 36 36 36 37 37 37 37
25 25 26 26 26 26 26 26 25 25 26 27 26 26 25 26 27 27 28 28 29 29 30 30 30 30 31 32 33 33 34 34 34 34 33 35 36 37 37 37 38 38 38
26 26 26 25 25 25 25 24 24 25 25 25 25 25 26 26 26 26 27 28 28 28 28 29 29 30 31 31 31 32 33 34 35 34 34 33 34 36 37 38 38 39 39
26 25 24 23 23 24 24 24 23 23 23 24 24 25 26 26 27 27 27 27 27 27 27 27 28 29 30 30 30 31 32 33 33 33 34 34 34 34 36 37 39 39 39
25 23 23 23 22 22 23 22 22 22 22 22 23 23 24 25 27 27 26 26 26 26 26 26 26 26 28 29 29 30 31 32 33 33 33 33 34 34 34 36 38 39 39
22 22 22 22 22 22 22 22 21 21 21 22 22 23 23 24 25 25 25 25 25 26 26 26 26 25 25 26 28 28 29 31 32 33 32 32 33 33 34 36 36 38 39
22 22 21 21 22 22 22 21 21 21 21 21 22 22 23 24 24 24 24 24 24 24 24 24 24 24 25 25 26 26 27 29 30 29 30 30 31 32 33 36 37 37 39
21 21 21 21 21 21 21 20 20 21 21 22 22 22 22 23 23 23 23 23 22 22 22 23 22 23 23 24 25 26 27 27 28 28 28 28 29 31 32 34 36 37 38
21 20 20 20 21 21 20 20 20 21 21 22 22 22 22 22 22 22 21 21 21 21 20 21 22 22 23 23 23 25 26 26 26 27 28 29 30 30 31 32 34 36 38
20 20 20 20 20 20 21 20 19 19 20 20 21 21 21 21 20 20 19 20 21 21 20 20 21 22 22 22 23 23 24 25 25 25 26 28 29 30 31 32 33 34 36
20 20 20 20 20 21 20 20 18 17 18 18 19 20 20 20 19 19 19 19 20 20 21 20 20 21 22 22 23 23 23 24 24 25 26 26 27 28 29 29 31 33 35
20 20 19 19 20 20 19 18 18 18 18 18 19 19 19 19 18 18 19 19 19 20 20 20 20 20 21 22 22 23 23 23 24 25 26 26 26 27 28 29 30 31 33
19 19 19 19 19 18 18 17 18 18 18 18 19 18 18 18 18 18 18 18 19 19 20 19 19 19 20 21 20 21 21 21 22 24 24 24 25 25 26 28 29 30 31
18 18 19 19 18 18 17 17 17 18 18 18 18 18 18 18 18 19 19 18 18 18 18 18 18 19 20 20 20 21 21 21 21 23 23 23 23 23 25 26 27 29 30
17 17 18 17 16 17 16 16 16 17 17 17 18 18 18 18 18 18 18 17 17 17 18 18 19 19 19 20 20 21 21 21 21 21 22 22 23 23 23 24 25 26 27
16 16 16 15 15 15 15 16 16 16 16 16 16 16 17 17 17 16 16 16 17 18 18 18 19 19 19 20 20 19 19 20 20 21 21 21 23 22 23 24 25 25 26
16 16 15 15 15 16 16 16 16 16 15 15 15 15 16 16 16 16 16 17 18 18 18 18 19 19 19 19 19 18 18 18 19 20 20 20 22 22 24 25 25 25 25
15 15 16 15 15 15 15 16 16 15 15 15 15 15 16 16 17 17 17 17 17 17 17 17 17 17 18 18 18 18 18 18 19 20 20 20 20 21 23 23 24 25 26
14 14 14 14 14 14 14 14 14 14 14 14 15 15 16 16 17 17 17 17 17 17 17 17 17 17 16 17 17 17 17 18 18 18 19 20 21 22 22 23 23 24 25

GEFSMA_500_meanwind_210.txt.gz
Wind_Speed
22 24 24 25 26 26 27 27 27 28 29 29 29 28 28 27 28 28 28 27 26 26 27 28 28 27 28 28 28 29 28 29 29 29 29 29 29 29 29 29 29 28 28
23 24 25 26 26 27 28 28 29 30 30 30 29 29 28 28 29 29 28 28 27 27 27 28 28 28 29 29 30 30 30 30 30 31 31 32 31 31 31 30 30 31 30
24 24 25 26 26 27 28 29 31 31 31 31 30 29 27 28 28 28 28 28 28 28 28 29 29 29 30 30 30 30 30 31 31 32 32 32 32 32 32 32 32 32 32
25 25 25 26 27 27 29 29 30 31 31 31 31 31 30 29 28 28 28 28 29 29 29 29 30 30 30 30 30 31 31 31 32 32 32 33 32 32 33 33 33 33 33
25 26 26 27 28 28 29 29 29 30 30 31 31 31 31 30 30 29 29 30 30 31 30 30 30 30 30 30 31 31 32 32 32 32 32 33 32 33 34 34 34 33 34
25 26 27 27 28 29 29 29 29 30 30 30 29 29 30 30 30 30 30 30 30 31 31 31 30 29 30 31 31 32 32 33 33 34 34 33 33 33 33 34 34 33 34
26 27 27 28 28 29 29 29 29 28 28 27 27 28 28 29 29 29 30 30 30 30 30 30 31 30 30 30 30 32 32 33 34 35 35 35 34 34 34 35 34 34 34
27 27 27 28 28 29 29 29 28 27 26 26 26 26 26 28 28 27 27 28 29 29 29 30 30 30 30 30 30 31 31 32 34 35 35 35 35 35 35 34 35 35 35
26 26 27 27 28 28 28 27 27 27 26 26 26 26 26 26 25 25 26 27 27 28 29 29 29 30 31 31 31 31 31 32 32 33 34 35 36 36 36 36 36 36 36
26 27 27 28 28 28 27 26 25 25 26 26 26 26 26 25 25 24 25 26 26 26 27 27 29 30 30 31 31 31 32 33 34 34 34 35 35 36 36 36 36 37 37
26 26 26 27 27 26 26 25 24 24 25 24 25 25 25 24 24 23 23 24 25 26 26 27 27 28 29 30 31 32 33 34 34 35 35 35 36 36 36 36 36 37 38
25 25 25 25 25 24 24 24 24 24 23 23 24 24 24 24 24 23 23 23 24 26 26 26 27 28 29 30 31 32 32 33 33 34 35 36 37 37 38 38 38 38 37
24 24 24 24 24 24 24 24 23 23 23 23 24 24 24 24 23 23 23 24 24 25 25 26 27 28 28 29 30 31 31 32 33 33 33 34 36 37 38 39 39 39 39
23 23 23 23 23 23 23 23 23 23 23 23 23 24 24 23 23 23 23 24 24 24 25 25 26 27 27 28 29 29 30 31 32 32 33 33 34 35 37 38 39 40 40
23 23 22 23 22 22 22 22 22 21 22 22 23 23 23 23 23 23 23 23 24 24 24 24 24 25 26 27 27 28 28 29 30 32 32 32 33 34 35 36 37 39 40
22 22 22 22 22 22 22 22 22 22 22 22 22 22 23 23 23 23 22 23 23 23 23 24 24 25 25 26 26 26 27 27 28 29 30 31 32 33 34 36 37 38 39
21 22 22 22 22 22 22 22 22 23 23 22 22 22 21 21 22 22 22 22 22 22 22 23 23 24 24 25 25 25 25 26 27 28 28 30 31 32 33 34 35 36 38
22 22 21 21 21 21 21 22 22 22 21 21 21 21 21 21 21 22 22 22 22 22 22 22 22 22 23 23 23 23 24 25 26 27 28 29 29 30 31 32 34 35 37
22 22 21 20 20 19 20 20 20 20 20 20 20 20 20 20 21 22 22 22 22 21 22 22 22 22 22 22 23 23 23 24 25 25 26 27 28 28 29 31 32 33 35
21 21 20 19 19 19 19 20 20 20 20 20 20 19 19 19 20 20 21 21 21 21 21 21 21 21 21 21 22 22 22 23 23 24 25 26 27 28 28 30 31 32 33
20 20 19 19 18 19 19 20 20 20 20 19 18 18 18 19 20 20 20 19 20 19 20 20 20 20 20 21 21 21 21 22 23 24 23 24 25 26 27 28 29 31 32
19 19 18 18 18 19 20 20 20 20 19 19 18 18 18 18 19 19 19 20 20 19 19 19 20 20 20 21 21 21 21 21 21 23 23 23 24 25 26 27 27 29 30
19 19 18 18 19 19 19 19 19 19 19 18 18 18 18 18 19 19 19 19 19 19 19 20 20 21 21 21 21 21 21 21 21 21 22 22 23 24 25 26 27 28 29
19 20 19 19 18 18 19 18 18 18 19 18 18 18 18 19 19 19 19 19 19 19 20 20 21 21 20 21 21 21 22 22 22 22 22 22 23 23 24 25 25 26 26
19 19 18 18 17 17 17 18 18 19 19 19 19 19 19 19 19 19 19 19 19 19 20 21 22 21 21 21 21 21 21 21 21 21 21 22 22 23 23 24 25 25 25
19 18 17 17 17 17 17 18 19 20 20 20 20 20 20 20 20 20 19 19 20 20 21 21 22 21 21 21 21 22 21 21 21 21 21 22 22 22 23 24 25 25 25

GEFSMA_500_meanwind_216.txt.gz
Wind_Speed
21 22 23 23 23 24 24 25 25 25 26 26 26 26 27 27 27 28 27 27 26 26 26 27 27 27 27 27 28 29 29 28 29 29 30 30 30 30 30 30 30 29 29
22 22 23 23 23 24 25 26 26 27 27 27 28 28 28 29 28 28 28 28 27 27 27 27 28 29 28 28 29 29 29 29 30 30 31 31 31 32 31 31 32 31 32
23 23 23 24 25 25 26 26 27 27 27 28 29 29 30 29 29 28 28 28 28 28 28 28 28 29 29 29 29 29 29 30 30 30 31 32 32 32 33 33 33 33 33
24 24 24 25 26 26 27 27 28 28 28 28 29 29 28 28 29 28 28 28 28 27 28 28 29 30 30 30 30 30 30 30 31 31 32 32 33 33 33 34 34 35 34
25 26 26 27 27 28 28 28 28 28 28 28 29 28 28 27 27 28 28 28 28 28 28 28 29 29 30 30 30 30 30 30 31 33 33 33 34 34 33 33 34 34 35
26 27 27 27 28 28 29 29 28 28 28 28 28 27 26 26 26 26 27 27 27 27 28 29 28 28 29 30 30 30 30 31 31 32 33 33 34 34 35 34 34 34 35
27 27 27 27 27 28 28 28 28 28 27 27 27 26 26 26 26 26 26 26 26 26 27 28 28 28 28 29 29 30 30 31 31 32 33 33 34 34 35 36 35 35 35
27 27 27 27 28 28 28 28 28 27 27 27 27 25 25 25 25 25 25 25 25 25 26 26 26 27 27 28 29 30 30 30 31 31 32 33 34 35 35 36 36 36 36
26 27 27 27 28 28 28 27 27 26 26 27 26 25 24 24 24 25 24 25 25 25 24 25 25 26 28 28 29 30 30 31 31 32 32 33 33 34 35 35 36 36 36
26 27 27 28 27 27 27 27 26 26 26 25 24 24 24 24 24 23 24 25 25 25 24 24 25 25 27 27 28 29 30 31 32 32 33 33 34 35 35 35 36 36 37
27 27 28 27 27 26 26 26 25 25 25 24 24 24 25 25 24 24 24 25 25 25 25 25 26 26 27 27 28 29 30 31 32 32 33 33 33 34 34 34 35 36 37
27 27 28 27 27 26 26 25 24 24 24 23 23 23 23 24 24 24 24 25 25 25 25 26 27 27 27 27 28 29 30 31 32 32 32 33 33 33 33 33 34 35 36
27 26 26 26 26 25 25 24 24 24 23 23 23 23 23 23 23 24 24 24 24 25 25 26 27 26 27 27 27 28 29 30 31 32 33 33 34 33 34 33 35 35 36
26 25 25 25 25 25 24 24 23 24 23 23 23 23 23 22 23 23 24 24 24 25 25 26 26 26 26 26 27 27 28 30 31 32 33 33 33 33 34 34 35 36 37
24 24 24 24 24 24 23 23 22 22 22 22 22 22 22 22 21 22 23 23 24 25 25 25 26 26 26 26 27 27 28 29 30 30 31 32 32 33 34 35 36 37 38
23 23 23 24 24 24 23 22 22 22 21 21 21 21 22 21 21 21 22 22 23 23 23 23 25 26 26 26 26 27 27 27 28 29 30 31 32 33 34 34 36 37 38
22 22 22 23 23 22 22 21 21 21 21 21 21 21 22 21 22 22 22 22 23 23 23 23 24 25 25 24 24 25 26 27 27 28 30 31 32 33 34 34 35 36 38
21 22 22 22 22 21 21 20 20 21 21 21 21 21 21 22 22 22 21 22 22 22 22 23 23 24 24 24 24 25 25 25 25 26 27 29 30 31 33 33 34 36 37
21 21 22 22 21 21 20 19 20 20 21 20 20 21 22 22 22 22 21 21 21 21 21 22 22 22 23 22 23 23 24 24 24 24 25 27 28 30 31 32 33 35 36
20 20 21 21 22 20 20 20 20 21 21 20 20 21 21 22 22 21 20 20 20 20 21 21 21 22 22 22 22 23 23 23 24 24 24 25 26 28 29 30 31 32 34
20 20 21 21 21 21 20 21 21 21 20 20 21 21 21 21 22 21 20 19 20 20 21 21 21 22 22 22 23 23 22 23 23 23 23 23 24 25 27 28 29 30 31
21 21 21 21 22 21 21 22 22 21 21 21 20 21 21 21 21 20 20 20 21 21 22 22 22 22 22 22 23 22 22 22 22 22 22 22 23 24 25 27 28 29 30
20 21 21 22 22 21 21 21 21 21 21 20 20 20 20 20 20 20 20 21 21 21 21 21 21 22 22 22 22 22 22 21 21 21 22 21 22 22 23 25 25 27 29
20 21 21 21 21 21 21 21 20 20 20 20 20 20 20 20 21 20 20 20 20 20 21 21 21 21 21 21 22 22 22 22 22 22 22 22 22 22 23 23 24 25 27
19 19 18 18 19 19 20 20 19 19 19 19 19 20 20 20 20 20 20 19 19 20 21 20 20 20 21 21 21 22 22 23 22 22 22 23 22 22 23 23 24 25 26
17 17 16 17 18 18 18 18 18 18 18 19 19 19 19 19 19 19 19 19 20 20 20 20 20 21 21 21 21 21 22 22 22 22 22 22 22 22 22 23 24 25 25

GEFSMA_500_meanwind_222.txt.gz
Wind_Speed
24 25 26 26 26 25 25 25 26 26 27 27 27 26 26 25 25 25 25 25 24 25 25 25 25 26 25 26 26 26 26 27 27 27 28 28 29 30 30 29 30 30 30
26 26 27 26 27 27 27 27 27 27 27 28 27 27 27 26 26 26 26 26 26 25 25 25 25 26 26 26 27 26 26 27 27 27 28 28 29 30 31 31 31 31 31
27 27 27 27 27 28 28 28 28 28 28 28 28 28 27 27 26 26 26 26 26 25 25 25 25 25 26 26 26 26 26 27 27 27 28 29 29 30 31 31 32 32 33
28 28 28 28 28 28 29 29 29 29 29 28 28 27 27 26 26 26 26 26 25 25 25 26 26 26 26 27 27 27 27 27 27 28 28 28 28 28 30 31 31 32 32
28 28 29 29 28 29 30 30 29 29 28 28 27 27 27 26 26 26 26 26 26 26 25 25 25 25 26 26 27 27 27 27 27 29 29 30 30 29 30 31 32 32 32
28 28 28 28 29 29 30 30 29 28 28 28 28 27 27 27 26 26 26 26 26 26 26 25 25 25 25 26 27 28 28 27 28 28 29 29 30 30 30 31 31 32 33
28 28 27 28 30 31 30 29 28 28 28 28 27 27 27 27 27 27 26 26 26 26 25 25 26 26 25 26 27 28 28 28 28 29 29 30 30 31 32 32 32 32 33
28 27 29 29 29 29 28 28 28 28 29 29 28 28 27 27 27 27 26 25 25 26 26 26 26 26 26 26 26 27 27 28 29 30 30 30 31 31 32 33 34 34 34
28 28 28 28 28 29 28 27 28 28 29 28 27 27 26 26 25 25 25 25 25 25 26 26 26 26 26 26 26 27 27 28 28 30 31 31 32 32 32 33 34 34 34
28 28 28 28 29 29 28 28 28 29 29 28 28 28 27 26 25 25 25 26 25 25 25 26 26 27 26 26 26 27 28 29 28 29 30 31 32 33 33 33 33 34 35
27 27 29 29 29 28 29 29 29 29 28 27 27 27 26 26 26 27 25 25 26 25 25 25 25 25 26 26 26 27 27 28 28 28 29 30 31 32 33 33 33 33 34
26 27 28 28 28 28 27 27 27 27 26 27 26 26 26 26 26 26 26 25 25 25 25 25 25 26 26 26 26 26 27 28 29 29 29 29 30 31 32 33 33 33 34
25 26 27 27 27 26 25 26 26 26 26 25 25 26 25 25 25 25 26 26 26 25 25 25 26 26 26 26 26 26 27 27 28 28 29 29 30 30 31 32 32 33 34
25 25 25 24 24 24 24 24 25 25 24 24 25 25 25 25 25 25 26 26 26 26 26 26 26 26 27 27 26 26 26 27 28 29 29 29 30 31 31 32 32 32 33
25 25 24 24 24 24 23 24 24 24 24 24 24 25 24 24 24 24 25 26 27 26 26 25 25 25 26 26 26 26 26 27 28 29 29 29 30 30 30 31 32 33 33
23 24 23 23 22 22 23 24 24 25 25 25 24 24 23 23 23 24 24 24 25 26 26 25 24 25 25 26 26 26 26 27 28 28 29 29 30 30 30 31 32 33 34
23 23 23 23 22 22 22 23 23 24 24 24 24 24 23 22 23 24 24 24 25 25 25 24 25 25 25 26 27 27 26 26 27 28 28 29 30 31 31 30 31 32 33
23 23 23 23 22 22 23 24 24 25 25 24 24 22 22 22 23 23 23 24 25 25 25 25 25 26 26 27 27 28 28 27 26 27 27 27 28 29 30 31 31 32 32
22 22 23 23 23 23 24 24 24 25 24 23 22 22 21 22 22 22 23 23 24 24 25 26 26 26 26 27 28 27 27 27 26 26 27 26 27 28 28 29 30 31 31
23 23 23 23 23 24 24 24 24 24 23 22 22 22 22 21 21 22 22 22 23 23 24 25 26 26 26 26 26 26 26 26 26 26 25 25 26 26 26 27 28 28 29
22 22 23 23 23 24 24 24 24 23 22 23 23 22 21 21 22 22 22 22 22 22 22 23 24 25 25 25 25 24 25 25 25 24 24 25 25 25 24 25 26 27 28
22 23 23 24 23 23 23 23 23 22 22 23 23 22 21 21 22 22 21 21 20 21 21 22 22 23 23 23 24 24 24 24 23 23 23 24 24 24 25 25 25 26 27
22 23 23 23 22 21 22 22 22 22 22 22 23 22 22 21 20 20 20 20 20 21 21 21 21 21 22 22 22 23 23 22 22 22 23 23 23 24 25 25 25 26 27
22 22 22 21 21 21 21 21 21 21 22 22 22 21 20 19 19 19 19 19 19 20 21 21 20 21 21 21 22 22 22 22 21 21 22 22 23 24 25 25 26 26 26
21 21 21 20 20 20 21 21 21 22 22 21 21 21 20 19 19 19 18 18 18 19 19 19 19 20 21 21 22 22 21 21 21 21 22 23 23 24 24 25 26 27 27
20 21 20 20 20 20 20 21 21 21 21 20 20 19 19 18 17 17 17 17 17 18 18 18 18 19 19 20 21 21 21 21 22 22 23 23 23 24 24 25 26 26 27

GEFSMA_500_meanwind_228.txt.gz
Wind_Speed
24 24 23 23 24 24 24 25 25 25 26 26 26 26 26 25 25 26 25 25 24 24 26 26 26 27 27 26 26 26 26 26 26 26 26 26 27 27 27 28 27 27 26
24 24 24 24 25 26 26 26 26 27 27 27 27 26 26 26 26 25 26 26 26 26 26 26 26 26 27 27 27 26 26 26 26 26 27 27 28 28 28 28 28 28 27
24 24 25 25 24 25 26 26 27 27 27 27 27 27 27 27 26 26 26 26 27 27 26 26 26 26 27 27 27 27 27 27 27 27 27 28 28 29 29 29 28 29 29
24 24 24 25 25 25 26 26 26 27 27 27 27 27 27 27 27 26 26 26 26 27 26 26 27 26 27 28 27 27 28 28 29 28 28 28 29 28 29 29 28 28 29
24 24 25 25 25 26 26 26 26 26 27 28 27 26 26 26 27 26 26 26 26 26 26 27 28 27 26 27 27 27 28 28 29 29 29 29 29 29 29 29 30 29 29
24 24 24 24 25 26 26 26 27 27 27 27 26 26 26 26 26 26 26 26 26 26 26 27 27 27 27 27 27 28 29 29 29 29 29 29 30 30 30 30 30 31 31
25 25 25 26 26 26 26 27 28 28 27 27 26 26 26 25 25 26 26 26 25 26 27 27 27 27 27 27 29 29 29 29 30 30 30 30 31 31 31 31 31 32 32
25 25 25 26 26 27 27 28 28 27 26 26 26 26 25 25 25 26 26 26 26 26 27 28 27 26 27 28 28 29 30 30 30 31 32 31 31 31 31 31 32 32 33
26 27 26 26 27 27 27 27 26 26 25 25 26 26 25 24 25 26 26 27 27 26 26 26 26 26 27 27 28 29 30 30 31 32 32 33 32 33 32 32 32 33 34
26 26 26 26 26 26 26 25 25 24 24 25 26 26 26 25 25 25 26 26 27 26 26 27 27 27 27 27 28 29 30 30 30 31 32 32 33 33 34 33 34 34 34
25 25 25 25 25 24 24 24 24 24 23 24 25 25 26 26 27 27 26 26 27 27 27 27 27 28 28 28 29 29 30 30 29 30 30 31 33 33 34 34 34 34 34
25 24 24 23 23 23 23 22 22 22 22 24 24 25 26 26 27 28 27 27 27 27 27 27 27 28 29 29 29 29 29 30 30 31 31 32 33 33 33 34 34 34 34
23 23 22 22 23 23 22 22 22 21 21 23 24 25 25 26 26 26 26 26 26 26 26 25 26 27 28 28 28 28 29 29 30 30 31 32 32 33 33 33 34 35 35
23 22 22 21 21 21 22 22 22 23 24 24 25 25 26 25 25 24 23 24 24 24 24 25 26 26 27 27 27 27 27 28 29 30 30 31 32 32 33 33 33 34 34
22 22 22 21 21 21 21 22 23 24 25 25 25 25 25 25 24 24 23 22 23 24 24 24 25 25 26 27 26 27 27 28 28 29 30 30 31 32 32 33 33 34 34
22 21 21 21 21 21 21 22 23 23 24 24 24 24 24 23 23 22 22 22 22 23 24 25 26 27 28 27 26 27 27 27 27 28 30 30 31 31 32 33 34 34 34
21 20 20 21 21 21 21 22 22 23 24 24 23 23 23 22 22 22 22 22 24 24 24 25 26 27 28 28 29 28 26 27 28 29 30 31 31 32 32 33 33 33 34
21 20 21 21 21 21 22 22 23 23 23 23 23 23 22 21 21 22 22 22 23 24 24 25 26 26 27 28 29 29 28 28 28 29 29 30 31 32 33 33 33 33 34
21 21 21 21 21 22 22 22 22 23 23 23 22 22 21 21 21 21 22 22 23 23 24 24 25 26 27 28 27 27 28 29 29 29 29 29 30 31 32 33 33 33 33
21 22 21 22 22 21 22 22 22 22 22 22 22 21 20 20 20 20 21 21 22 23 23 23 24 25 25 26 26 26 27 27 28 28 28 29 29 30 31 32 32 33 33
21 22 22 22 22 22 23 22 22 21 22 21 21 20 20 20 19 19 20 20 21 21 21 22 22 22 22 24 25 25 25 26 26 26 27 28 29 29 30 31 31 31 32
22 22 23 23 23 23 23 22 22 21 21 21 20 20 20 20 20 20 19 20 20 20 20 21 21 21 21 22 24 24 24 24 24 25 25 25 26 27 27 27 28 29 29
21 22 23 23 23 22 22 21 21 20 20 20 20 19 19 19 19 19 18 19 19 19 19 20 21 21 21 22 23 24 24 24 23 24 25 24 24 25 25 26 27 28 29
21 21 21 22 21 21 21 21 20 20 19 19 19 18 18 18 18 17 17 17 17 17 18 19 20 20 21 22 22 23 23 23 23 23 24 23 24 25 25 26 27 28 29
21 21 21 20 20 20 20 19 18 18 18 17 17 17 17 17 17 16 16 15 16 16 17 18 19 20 20 21 21 21 22 21 21 22 23 23 23 24 25 26 27 28 29
20 19 20 20 19 19 18 17 17 17 16 15 16 16 16 15 15 15 14 14 14 15 15 16 17 17 17 18 18 18 19 19 19 20 20 22 23 24 25 25 26 28 29

GEFSMA_500_meanwind_234.txt.gz
Wind_Speed
23 23 24 24 25 26 27 28 28 28 29 29 29 29 29 28 28 29 29 29 28 28 28 28 27 27 27 27 27 27 27 27 27 26 26 26 26 26 27 26 26 26 25
24 24 25 25 25 26 27 28 28 28 29 29 29 29 29 29 29 29 29 28 28 28 28 28 28 28 27 27 28 28 28 28 28 27 26 26 27 27 27 28 28 27 27
24 25 26 26 26 27 27 28 28 28 29 29 29 28 29 29 29 29 29 29 28 29 28 28 29 28 28 28 28 28 29 30 30 29 28 27 28 27 28 28 29 29 29
25 25 26 27 27 27 27 27 28 29 29 30 30 29 29 29 28 28 29 29 29 29 28 28 29 29 29 29 28 28 29 30 29 29 29 29 29 28 29 30 30 30 31
26 26 26 27 27 27 27 27 28 28 29 30 31 30 30 29 28 28 28 29 29 29 29 29 29 29 29 29 29 29 29 29 30 30 30 29 29 30 29 29 30 30 31
26 26 27 27 27 27 26 27 28 28 28 28 29 29 30 29 28 28 28 28 29 29 29 29 29 29 29 30 29 29 29 29 30 31 31 30 29 30 30 30 31 31 31
26 26 27 27 26 26 26 27 28 27 27 27 27 27 27 27 28 28 28 28 28 29 29 29 28 29 29 30 30 30 30 29 30 31 31 31 31 31 31 31 32 32 32
24 25 25 25 26 25 25 26 26 25 25 26 25 25 26 26 27 27 27 28 28 29 30 30 29 29 30 30 30 30 30 30 29 30 30 31 31 32 32 32 32 33 32
23 24 24 24 24 24 24 25 25 24 24 24 24 25 24 24 25 26 27 29 29 30 30 30 30 30 30 30 30 29 30 30 30 30 31 31 32 32 33 33 33 34 34
23 23 23 22 22 23 24 23 23 24 24 24 24 25 25 26 26 25 26 28 29 30 30 30 30 30 29 30 30 30 31 30 31 31 31 32 32 32 33 33 33 34 34
23 23 23 22 22 22 22 22 23 23 25 25 24 25 26 27 27 27 26 27 29 29 30 30 30 29 28 29 30 30 31 31 30 31 32 32 33 33 33 34 35 35 35
23 23 23 23 22 22 22 23 24 24 25 25 25 26 27 28 28 27 27 27 28 28 28 28 28 29 29 29 30 30 30 30 31 31 32 32 33 33 33 34 34 34 34
23 23 24 24 24 24 24 24 24 25 24 25 26 27 28 28 28 28 27 27 26 26 27 28 28 28 29 29 30 30 29 30 31 32 32 32 33 33 34 34 33 33 34
23 23 23 24 25 25 25 25 24 25 26 26 26 27 28 28 28 27 27 27 27 27 27 27 28 28 29 31 31 32 31 30 30 31 32 32 32 32 33 33 33 32 33
22 22 22 23 24 24 24 25 26 26 26 26 27 27 27 27 27 27 27 27 27 27 27 27 27 28 29 30 31 32 32 31 31 31 32 32 32 32 33 33 33 32 32
22 22 21 21 22 23 24 25 26 26 26 25 26 26 26 26 26 26 26 27 27 26 26 26 27 28 29 30 30 31 31 31 31 31 31 31 32 32 32 32 33 33 33
22 22 21 21 22 24 24 25 25 25 25 25 26 25 24 23 23 23 24 24 25 25 25 25 25 26 27 28 29 31 31 32 32 32 31 31 32 32 32 33 32 32 33
21 21 22 22 23 24 24 24 24 25 25 25 24 24 23 22 22 22 22 23 23 23 23 23 24 25 26 27 28 29 30 31 32 32 31 31 32 32 32 33 33 33 33
20 21 22 22 23 24 23 23 23 23 23 24 24 23 21 21 21 21 21 22 22 23 23 23 23 24 25 25 26 27 29 30 32 32 32 32 32 32 32 32 32 32 33
21 22 22 22 22 23 22 22 22 23 23 23 23 22 21 21 21 21 21 22 22 22 22 22 22 22 23 24 25 26 27 29 30 31 31 31 32 32 32 32 32 31 31
21 21 22 22 22 22 23 23 23 23 23 22 22 22 21 21 21 20 20 20 20 21 21 21 21 22 23 24 25 26 26 26 28 29 30 31 31 32 33 33 33 32 32
22 22 23 23 23 23 23 23 22 22 21 21 21 21 21 20 19 19 19 19 19 19 19 20 21 21 22 23 24 24 23 24 25 26 28 29 31 32 32 32 33 33 33
22 22 22 22 22 22 22 22 21 21 21 21 21 20 19 18 18 17 18 18 18 18 18 19 20 20 20 20 20 20 21 21 22 23 24 25 27 29 30 31 32 33 34
21 21 21 21 21 22 22 21 21 21 20 20 20 19 18 17 17 17 17 17 18 18 18 17 17 18 17 17 17 17 18 19 20 21 22 22 24 25 26 27 29 31 31
20 19 19 20 20 21 20 20 20 21 20 20 19 19 18 16 17 17 16 16 16 17 16 16 15 15 15 16 16 17 18 19 19 20 20 22 23 24 25 26 27 28 29
19 19 19 19 19 19 19 19 19 20 20 20 19 18 18 17 17 17 16 15 15 15 15 15 15 15 15 16 17 17 18 18 18 19 20 21 22 23 23 25 25 26 27

GEFSMA_500_meanwind_240.txt.gz
Wind_Speed
21 21 22 22 22 23 23 23 23 24 25 25 25 25 26 26 27 27 27 27 27 27 28 27 26 26 26 26 26 26 26 26 27 27 26 27 27 27 27 27 27 27 26
22 23 23 23 23 24 24 24 24 24 25 26 26 27 27 27 28 28 28 27 27 28 28 29 28 28 27 27 27 28 27 27 27 28 27 28 28 28 28 28 28 27 27
23 24 24 24 24 24 25 25 24 25 25 25 26 27 27 27 28 28 29 29 29 28 29 29 29 28 28 28 28 29 29 29 29 29 29 29 30 30 30 29 29 29 28
23 25 25 25 24 24 24 24 24 25 25 25 26 26 27 26 27 28 29 29 29 28 28 28 28 29 28 29 29 29 29 29 30 30 30 31 30 31 31 31 30 30 29
24 24 24 24 24 24 24 24 24 24 25 25 25 26 26 26 26 27 28 29 29 29 28 28 29 29 29 29 30 30 30 30 30 31 31 31 31 31 31 32 32 31 30
22 22 23 23 23 23 24 24 24 24 24 25 25 25 26 26 26 26 27 27 28 29 29 29 28 30 30 30 31 31 31 31 31 31 31 31 32 32 32 32 33 32 32
22 23 23 24 24 24 23 23 23 23 24 25 25 25 26 27 27 26 26 27 27 28 29 29 29 29 30 30 30 31 31 31 31 31 31 31 32 32 32 32 33 32 33
21 23 23 24 24 24 23 23 23 23 23 24 24 25 25 25 26 26 27 27 28 29 29 29 29 29 30 29 29 30 32 32 31 32 32 32 32 32 33 33 33 33 33
21 22 23 23 23 24 24 24 23 24 24 24 24 25 25 24 25 26 27 28 28 28 29 29 29 29 30 30 30 30 30 30 31 32 33 33 33 33 33 33 34 34 34
21 22 22 23 23 23 24 24 24 23 24 24 24 24 25 25 25 25 26 27 28 28 28 29 30 30 30 31 31 30 31 32 32 33 33 33 34 34 33 34 36 36 35
21 23 23 24 24 24 24 23 23 23 24 24 24 25 25 26 26 26 26 26 27 27 27 28 29 29 30 30 31 32 31 32 33 33 33 34 34 34 34 33 34 36 35
22 23 23 23 23 23 23 22 23 24 24 24 25 25 25 25 26 26 26 26 27 27 28 28 29 30 31 31 32 33 32 32 33 33 33 33 34 33 33 32 33 34 34
22 23 22 21 21 22 23 23 23 23 23 23 23 24 23 24 24 25 26 26 27 27 28 28 29 31 32 32 32 34 35 34 34 34 34 33 33 33 33 32 33 33 33
21 21 21 20 21 22 22 23 23 23 24 24 23 23 23 22 23 23 25 26 26 26 27 28 29 30 31 33 33 33 34 34 34 34 35 35 34 34 34 33 32 33 34
20 20 20 21 21 21 22 23 23 23 24 24 23 23 23 23 23 24 25 25 26 27 27 28 29 29 30 32 34 34 35 35 34 34 36 36 36 35 34 34 34 33 33
19 20 20 21 21 22 22 23 23 23 23 23 23 23 23 24 24 25 25 25 26 27 27 27 27 28 29 31 33 34 35 35 36 36 36 36 37 36 36 35 35 34 34
19 20 20 20 20 21 22 22 22 22 22 22 22 21 21 22 22 23 23 24 24 25 25 24 25 26 28 29 30 31 33 35 37 37 36 36 36 36 37 37 37 36 36
20 20 20 20 21 21 22 22 22 21 21 21 21 20 21 21 21 21 22 22 22 22 23 23 24 24 25 26 27 29 31 32 34 35 35 35 36 36 36 36 37 37 36
20 20 20 20 21 21 21 22 22 21 20 19 19 20 20 20 20 20 21 21 21 22 23 23 23 23 24 24 25 26 27 28 30 31 33 34 34 34 34 34 35 36 35
19 19 20 20 21 21 22 22 22 21 20 19 19 20 21 21 20 20 20 20 19 20 21 22 22 22 23 23 23 24 24 25 27 29 30 31 32 32 32 32 32 33 34
19 19 20 20 21 21 21 21 21 21 21 20 21 21 21 21 21 21 20 20 19 19 20 21 21 22 22 23 23 23 23 24 26 28 29 30 31 32 32 31 32 32 32
19 19 19 18 19 20 20 20 21 21 20 20 20 20 20 21 21 19 19 19 19 19 19 20 20 20 21 21 21 21 21 22 24 26 27 28 29 30 31 32 32 32 33
17 17 17 17 18 18 19 19 19 19 19 19 19 20 21 20 19 18 18 18 18 18 18 18 19 19 19 19 20 20 20 21 22 23 24 26 28 28 30 31 32 32 33
17 16 16 16 17 18 18 19 19 18 18 18 19 19 20 20 19 18 18 18 18 18 18 18 19 18 18 18 19 19 19 20 21 21 23 24 26 27 28 29 30 32 32
16 16 16 16 17 17 18 19 18 18 18 18 18 18 19 20 19 18 18 18 17 18 18 19 18 18 18 18 18 19 19 19 19 20 22 23 24 25 26 28 30 30 31
14 14 15 15 17 17 18 19 18 17 18 18 18 19 19 19 18 17 17 17 16 16 16 17 17 17 17 17 18 18 18 18 19 20 21 23 23 24 25 27 28 30 31

GEFSMA_500_meanwind_246.txt.gz
Wind_Speed
20 19 19 20 20 20 20 21 21 21 22 21 22 23 24 25 25 25 26 27 26 26 25 25 24 25 25 24 24 24 24 24 25 25 26 26 25 25 25 26 26 26 25
21 20 19 19 20 21 21 22 23 23 23 23 24 24 25 25 25 24 25 26 26 26 26 26 25 26 26 26 25 25 25 25 25 26 26 27 27 27 27 26 26 26 26
22 21 20 20 21 21 22 23 24 24 24 24 24 25 25 25 24 24 24 25 25 26 25 26 26 27 27 27 26 26 26 26 26 27 27 28 28 28 27 27 26 27 27
22 21 20 20 21 22 22 23 24 24 24 24 24 25 24 24 24 24 24 24 25 26 26 26 26 26 27 27 26 26 26 26 26 27 27 28 28 28 28 28 27 27 27
21 21 21 21 21 22 23 23 23 23 24 24 25 24 24 24 24 24 24 24 24 25 26 26 26 26 27 28 28 28 28 28 28 27 27 27 27 28 28 29 28 28 28
21 21 21 21 22 23 23 23 23 22 23 23 24 24 24 25 25 24 24 24 24 25 26 26 27 27 28 29 29 29 29 29 29 29 29 29 29 29 29 29 29 29 29
21 21 21 22 22 23 22 23 23 23 23 23 23 23 23 24 24 24 25 25 25 26 27 26 28 28 28 28 29 30 30 30 30 30 30 30 30 31 30 31 31 31 30
22 22 22 22 22 22 23 23 23 24 23 23 23 23 22 22 23 24 25 26 26 27 27 27 28 28 28 27 28 30 30 30 30 30 31 31 31 31 30 31 32 32 32
22 22 22 21 21 22 22 23 23 23 23 23 24 24 23 23 23 24 25 26 26 27 27 27 28 28 28 28 28 29 30 30 30 31 31 31 32 32 31 31 32 33 33
20 20 20 20 21 21 22 23 23 24 24 24 24 23 24 24 25 25 24 25 26 27 27 28 28 29 29 29 29 29 30 31 31 31 31 32 33 33 32 32 32 33 33
19 19 20 20 21 22 22 23 22 22 22 23 23 23 24 25 25 26 25 25 26 27 27 28 28 28 28 29 30 30 31 32 33 33 33 33 33 33 33 33 33 34 33
19 19 19 20 21 22 22 22 22 22 22 23 24 23 23 24 24 26 26 26 26 26 26 27 27 28 28 29 29 29 30 31 32 33 34 34 34 34 34 34 34 35 34
19 19 19 20 21 21 21 22 22 23 22 23 23 23 24 24 24 25 26 25 25 25 26 26 27 28 28 28 29 29 30 31 32 33 34 34 34 35 35 35 35 35 36
19 19 19 20 21 21 22 21 22 22 22 22 23 24 24 25 25 26 26 26 26 25 25 25 26 26 27 27 28 29 29 31 32 33 33 34 34 34 35 35 35 35 36
18 18 19 20 20 21 21 21 22 22 22 22 22 23 24 25 25 26 27 27 26 26 25 24 25 26 27 27 27 28 29 29 29 31 33 33 34 34 34 34 34 34 35
18 19 19 20 20 21 21 21 22 22 22 22 23 23 24 25 26 26 27 26 26 26 25 25 26 26 26 26 26 27 28 28 28 30 31 32 33 33 34 34 34 34 35
19 19 19 19 20 20 20 21 21 22 22 23 23 23 24 25 25 25 25 24 24 25 24 23 24 25 26 25 25 26 27 27 27 29 30 30 31 32 34 35 35 35 36
19 19 19 19 19 19 20 20 21 21 22 22 23 23 23 23 23 24 24 23 23 24 23 23 23 24 24 25 25 25 26 27 27 28 29 30 31 32 33 34 34 34 35
20 20 20 19 19 20 20 20 20 21 22 23 23 23 23 23 23 24 23 23 23 22 22 22 23 22 23 23 23 24 24 25 27 27 28 29 29 30 31 32 34 34 35
20 20 19 19 19 20 20 21 21 22 23 23 23 23 24 24 23 23 22 21 21 21 21 21 21 21 22 22 23 23 24 25 26 26 27 28 28 29 30 30 32 34 35
20 20 19 19 19 20 20 21 22 22 23 23 23 23 23 23 22 22 21 20 20 20 20 20 20 21 21 22 23 23 24 24 24 26 27 28 28 28 28 29 30 32 34
19 19 19 19 20 20 21 22 22 22 22 23 23 23 22 22 21 21 20 20 19 18 19 19 20 20 20 21 22 23 23 24 23 24 26 26 26 26 27 29 30 31 33
19 19 20 20 20 20 21 21 21 21 21 21 21 21 21 21 21 20 19 19 18 18 18 19 19 19 20 20 21 22 22 22 23 24 25 24 25 26 27 27 29 30 31
19 20 20 20 20 20 20 20 19 19 19 20 20 20 20 21 20 19 18 18 18 17 18 18 19 19 19 19 20 20 20 21 21 22 24 24 25 25 25 26 27 28 30
20 20 20 20 20 19 18 18 18 19 19 20 21 20 20 20 20 19 18 18 17 17 17 17 17 17 17 17 18 18 18 19 19 20 21 22 23 25 26 26 27 27 26
20 20 20 20 19 18 18 18 18 19 20 21 21 21 21 21 20 19 18 18 17 17 17 17 17 17 17 16 17 17 17 18 18 19 20 20 21 22 23 23 25 26 26